<?xml version='1.0' encoding='UTF-8'?>
<gpx xmlns="http://www.topografix.com/GPX/1/1" creator="www.balnam.be" version="1.1" xmlns:xsi="http://www.w3.org/2001/XMLSchema-instance" xsi:schemaLocation="http://www.topografix.com/GPX/1/1 http://www.topografix.com/GPX/1/1/gpx.xsd">
<trk>
<name>brxrx10</name>
<cmt>v</cmt>
<desc>Rixensart Chemin n°10 Sentier du Coucou</desc>
<link href="https://chemins.be/rixensart/chemin/10"/><trkseg>
<trkpt lat="50.713734" lon="4.509479"><time>2026-05-08T07:08:49Z</time></trkpt>
<trkpt lat="50.714380" lon="4.509172"><time>2026-05-08T07:18:49Z</time></trkpt>
<trkpt lat="50.714624" lon="4.509000"><time>2026-05-08T07:28:49Z</time></trkpt>
<trkpt lat="50.714661" lon="4.508590"><time>2026-05-08T07:38:49Z</time></trkpt>
</trkseg>
</trk>
<trk>
<name>brxrx11</name>
<cmt>v</cmt>
<desc>Rixensart Chemin n°11 Chemin des Aïeux</desc>
<link href="https://chemins.be/rixensart/chemin/11"/><trkseg>
<trkpt lat="50.712466" lon="4.509787"><time>2026-05-08T07:08:49Z</time></trkpt>
<trkpt lat="50.712502" lon="4.509291"><time>2026-05-08T07:18:49Z</time></trkpt>
<trkpt lat="50.712477" lon="4.507875"><time>2026-05-08T07:28:49Z</time></trkpt>
<trkpt lat="50.712587" lon="4.507580"><time>2026-05-08T07:38:49Z</time></trkpt>
<trkpt lat="50.712729" lon="4.507253"><time>2026-05-08T07:48:49Z</time></trkpt>
<trkpt lat="50.712928" lon="4.506631"><time>2026-05-08T07:58:49Z</time></trkpt>
</trkseg>
</trk>
<trk>
<name>brxrx12</name>
<cmt>v</cmt>
<desc>Rixensart Chemin n°12 </desc>
<link href="https://chemins.be/rixensart/chemin/12"/><trkseg>
<trkpt lat="50.714769" lon="4.550768"><time>2026-05-08T07:08:49Z</time></trkpt>
<trkpt lat="50.715462" lon="4.550652"><time>2026-05-08T07:18:49Z</time></trkpt>
<trkpt lat="50.716455" lon="4.550537"><time>2026-05-08T07:28:49Z</time></trkpt>
<trkpt lat="50.717321" lon="4.550517"><time>2026-05-08T07:38:49Z</time></trkpt>
<trkpt lat="50.717983" lon="4.550501"><time>2026-05-08T07:48:49Z</time></trkpt>
<trkpt lat="50.719331" lon="4.551032"><time>2026-05-08T07:58:49Z</time></trkpt>
<trkpt lat="50.719978" lon="4.551287"><time>2026-05-08T08:08:49Z</time></trkpt>
<trkpt lat="50.722460" lon="4.550632"><time>2026-05-08T08:18:49Z</time></trkpt>
<trkpt lat="50.723764" lon="4.550198"><time>2026-05-08T08:28:49Z</time></trkpt>
</trkseg>
</trk>
<trk>
<name>brxrx13</name>
<cmt>s</cmt>
<desc>Rixensart Chemin n°13 </desc>
<link href="https://chemins.be/rixensart/chemin/13"/><trkseg>
<trkpt lat="50.723444" lon="4.528018"><time>2026-05-08T07:08:49Z</time></trkpt>
<trkpt lat="50.725038" lon="4.530421"><time>2026-05-08T07:18:49Z</time></trkpt>
</trkseg>
</trk>
<trk>
<name>brxrx16</name>
<cmt>r</cmt>
<desc>Rixensart Chemin n°16 Rue du Réservoir</desc>
<link href="https://chemins.be/rixensart/chemin/16"/><trkseg>
<trkpt lat="50.702196" lon="4.517891"><time>2026-05-08T07:08:49Z</time></trkpt>
<trkpt lat="50.700668" lon="4.518803"><time>2026-05-08T07:18:49Z</time></trkpt>
<trkpt lat="50.700307" lon="4.519412"><time>2026-05-08T07:28:49Z</time></trkpt>
<trkpt lat="50.699682" lon="4.520466"><time>2026-05-08T07:38:49Z</time></trkpt>
<trkpt lat="50.698826" lon="4.522022"><time>2026-05-08T07:48:49Z</time></trkpt>
</trkseg>
</trk>
<trk>
<name>brxrx16bis</name>
<cmt>v</cmt>
<desc>Rixensart Sentier n°16bis Sentier du Bois d'Aywiers</desc>
<link href="https://chemins.be/rixensart/sentier/16bis"/><trkseg>
<trkpt lat="50.699662" lon="4.520413"><time>2026-05-08T07:08:49Z</time></trkpt>
<trkpt lat="50.699288" lon="4.520048"><time>2026-05-08T07:18:49Z</time></trkpt>
<trkpt lat="50.698913" lon="4.520190"><time>2026-05-08T07:28:49Z</time></trkpt>
<trkpt lat="50.698747" lon="4.520316"><time>2026-05-08T07:38:49Z</time></trkpt>
</trkseg>
</trk>
<trk>
<name>brxrx18</name>
<cmt>v</cmt>
<desc>Rixensart Chemin n°18 </desc>
<link href="https://chemins.be/rixensart/chemin/18"/><trkseg>
<trkpt lat="50.706224" lon="4.503580"><time>2026-05-08T07:08:49Z</time></trkpt>
<trkpt lat="50.706563" lon="4.503108"><time>2026-05-08T07:18:49Z</time></trkpt>
</trkseg>
</trk>
<trk>
<name>brxrx19</name>
<cmt>v</cmt>
<desc>Rixensart Chemin n°19 Chemin n°19</desc>
<link href="https://chemins.be/rixensart/chemin/19"/><trkseg>
<trkpt lat="50.706000" lon="4.501669"><time>2026-05-08T07:08:49Z</time></trkpt>
<trkpt lat="50.706200" lon="4.501307"><time>2026-05-08T07:18:49Z</time></trkpt>
</trkseg></trk>
<trk>
<name>brxrx19</name>
<cmt>b</cmt>
<desc>Rixensart Chemin n°19 Chemin n°19</desc>
<link href="https://chemins.be/rixensart/chemin/19"/><trkseg>
<trkpt lat="50.706200" lon="4.501307"><time>2026-05-08T07:18:49Z</time></trkpt>
<trkpt lat="50.706357" lon="4.500908"><time>2026-05-08T07:28:49Z</time></trkpt>
<trkpt lat="50.706493" lon="4.500521"><time>2026-05-08T07:38:49Z</time></trkpt>
</trkseg>
</trk>
<trk>
<name>brxrx22</name>
<cmt>v</cmt>
<desc>Rixensart Sentier n°22 Sentier du bois de Ballois</desc>
<link href="https://chemins.be/rixensart/sentier/22"/><trkseg>
<trkpt lat="50.708444" lon="4.504678"><time>2026-05-08T07:08:49Z</time></trkpt>
<trkpt lat="50.708814" lon="4.503674"><time>2026-05-08T07:18:49Z</time></trkpt>
<trkpt lat="50.709944" lon="4.501894"><time>2026-05-08T07:28:49Z</time></trkpt>
</trkseg>
</trk>
<trk>
<name>brxrx24</name>
<cmt>r</cmt>
<desc>Rixensart Sentier n°24 Avenue du Fond Marie Monseu</desc>
<link href="https://chemins.be/rixensart/sentier/24"/><trkseg>
<trkpt lat="50.711826" lon="4.538485"><time>2026-05-08T07:08:49Z</time></trkpt>
<trkpt lat="50.711147" lon="4.538717"><time>2026-05-08T07:18:49Z</time></trkpt>
<trkpt lat="50.709788" lon="4.540151"><time>2026-05-08T07:28:49Z</time></trkpt>
<trkpt lat="50.708783" lon="4.542408"><time>2026-05-08T07:38:49Z</time></trkpt>
<trkpt lat="50.706190" lon="4.544433"><time>2026-05-08T07:48:49Z</time></trkpt>
</trkseg></trk>
<trk>
<name>brxrx24</name>
<cmt>s</cmt>
<desc>Rixensart Sentier n°24 Avenue du Fond Marie Monseu</desc>
<link href="https://chemins.be/rixensart/sentier/24"/><trkseg>
<trkpt lat="50.706190" lon="4.544433"><time>2026-05-08T07:48:49Z</time></trkpt>
<trkpt lat="50.704206" lon="4.544906"><time>2026-05-08T07:58:49Z</time></trkpt>
</trkseg></trk>
<trk>
<name>brxrx24</name>
<cmt>r</cmt>
<desc>Rixensart Sentier n°24 Avenue du Fond Marie Monseu</desc>
<link href="https://chemins.be/rixensart/sentier/24"/><trkseg>
<trkpt lat="50.704206" lon="4.544906"><time>2026-05-08T07:58:49Z</time></trkpt>
<trkpt lat="50.703472" lon="4.545360"><time>2026-05-08T08:08:49Z</time></trkpt>
</trkseg>
</trk>
<trk>
<name>brxrx25</name>
<cmt>s</cmt>
<desc>Rixensart Sentier n°25 </desc>
<link href="https://chemins.be/rixensart/sentier/25"/><trkseg>
<trkpt lat="50.714533" lon="4.538527"><time>2026-05-08T07:08:49Z</time></trkpt>
<trkpt lat="50.714418" lon="4.539282"><time>2026-05-08T07:18:49Z</time></trkpt>
<trkpt lat="50.712993" lon="4.548683"><time>2026-05-08T07:28:49Z</time></trkpt>
</trkseg>
</trk>
<trk>
<name>brxrx26</name>
<cmt>r</cmt>
<desc>Rixensart Sentier n°26 </desc>
<link href="https://chemins.be/rixensart/sentier/26"/><trkseg>
<trkpt lat="50.714853" lon="4.532980"><time>2026-05-08T07:08:49Z</time></trkpt>
<trkpt lat="50.714714" lon="4.535370"><time>2026-05-08T07:18:49Z</time></trkpt>
</trkseg>
</trk>
<trk>
<name>brxrx27</name>
<cmt>s</cmt>
<desc>Rixensart Sentier n°27 Sentier de la Procession</desc>
<link href="https://chemins.be/rixensart/sentier/27"/><trkseg>
<trkpt lat="50.711766" lon="4.533035"><time>2026-05-08T07:08:49Z</time></trkpt>
<trkpt lat="50.714098" lon="4.532314"><time>2026-05-08T07:18:49Z</time></trkpt>
</trkseg></trk>
<trk>
<name>brxrx27</name>
<cmt>v</cmt>
<desc>Rixensart Sentier n°27 Sentier de la Procession</desc>
<link href="https://chemins.be/rixensart/sentier/27"/><trkseg>
<trkpt lat="50.714098" lon="4.532314"><time>2026-05-08T07:18:49Z</time></trkpt>
<trkpt lat="50.714686" lon="4.530877"><time>2026-05-08T07:28:49Z</time></trkpt>
<trkpt lat="50.714865" lon="4.530948"><time>2026-05-08T07:38:49Z</time></trkpt>
<trkpt lat="50.714983" lon="4.530680"><time>2026-05-08T07:48:49Z</time></trkpt>
</trkseg>
</trk>
<trk>
<name>brxrx28</name>
<cmt>s</cmt>
<desc>Rixensart Sentier n°28 </desc>
<link href="https://chemins.be/rixensart/sentier/28"/><trkseg>
<trkpt lat="50.713350" lon="4.530152"><time>2026-05-08T07:08:49Z</time></trkpt>
<trkpt lat="50.713152" lon="4.531130"><time>2026-05-08T07:18:49Z</time></trkpt>
<trkpt lat="50.712874" lon="4.531894"><time>2026-05-08T07:28:49Z</time></trkpt>
<trkpt lat="50.712456" lon="4.532817"><time>2026-05-08T07:38:49Z</time></trkpt>
</trkseg>
</trk>
<trk>
<name>brxrx29</name>
<cmt>s</cmt>
<desc>Rixensart Sentier n°29 </desc>
<link href="https://chemins.be/rixensart/sentier/29"/><trkseg>
<trkpt lat="50.715001" lon="4.530677"><time>2026-05-08T07:08:49Z</time></trkpt>
<trkpt lat="50.715264" lon="4.531403"><time>2026-05-08T07:18:49Z</time></trkpt>
<trkpt lat="50.715297" lon="4.531892"><time>2026-05-08T07:28:49Z</time></trkpt>
<trkpt lat="50.715468" lon="4.531986"><time>2026-05-08T07:38:49Z</time></trkpt>
</trkseg>
</trk>
<trk>
<name>brxrx30</name>
<cmt>r</cmt>
<desc>Rixensart Sentier n°30 Rue de Messe / Rue des Ecoles</desc>
<link href="https://chemins.be/rixensart/sentier/30"/><trkseg>
<trkpt lat="50.708464" lon="4.515690"><time>2026-05-08T07:08:49Z</time></trkpt>
<trkpt lat="50.708710" lon="4.516254"><time>2026-05-08T07:18:49Z</time></trkpt>
<trkpt lat="50.709342" lon="4.517179"><time>2026-05-08T07:28:49Z</time></trkpt>
<trkpt lat="50.709787" lon="4.518868"><time>2026-05-08T07:38:49Z</time></trkpt>
<trkpt lat="50.710350" lon="4.520111"><time>2026-05-08T07:48:49Z</time></trkpt>
<trkpt lat="50.710499" lon="4.520946"><time>2026-05-08T07:58:49Z</time></trkpt>
<trkpt lat="50.710685" lon="4.521164"><time>2026-05-08T08:08:49Z</time></trkpt>
</trkseg></trk>
<trk>
<name>brxrx30</name>
<cmt>s</cmt>
<desc>Rixensart Sentier n°30 Rue de Messe / Rue des Ecoles</desc>
<link href="https://chemins.be/rixensart/sentier/30"/><trkseg>
<trkpt lat="50.710685" lon="4.521164"><time>2026-05-08T08:08:49Z</time></trkpt>
<trkpt lat="50.711495" lon="4.524645"><time>2026-05-08T08:18:49Z</time></trkpt>
<trkpt lat="50.711442" lon="4.526044"><time>2026-05-08T08:28:49Z</time></trkpt>
<trkpt lat="50.712564" lon="4.530678"><time>2026-05-08T08:38:49Z</time></trkpt>
<trkpt lat="50.713033" lon="4.531001"><time>2026-05-08T08:48:49Z</time></trkpt>
</trkseg></trk>
<trk>
<name>brxrx30</name>
<cmt>v</cmt>
<desc>Rixensart Sentier n°30 Rue de Messe / Rue des Ecoles</desc>
<link href="https://chemins.be/rixensart/sentier/30"/><trkseg>
<trkpt lat="50.713033" lon="4.531001"><time>2026-05-08T08:48:49Z</time></trkpt>
<trkpt lat="50.713386" lon="4.531422"><time>2026-05-08T08:58:49Z</time></trkpt>
</trkseg></trk>
<trk>
<name>brxrx30</name>
<cmt>r</cmt>
<desc>Rixensart Sentier n°30 Rue de Messe / Rue des Ecoles</desc>
<link href="https://chemins.be/rixensart/sentier/30"/><trkseg>
<trkpt lat="50.713386" lon="4.531422"><time>2026-05-08T08:58:49Z</time></trkpt>
<trkpt lat="50.713968" lon="4.532263"><time>2026-05-08T09:08:49Z</time></trkpt>
<trkpt lat="50.714853" lon="4.532976"><time>2026-05-08T09:18:49Z</time></trkpt>
</trkseg></trk>
<trk>
<name>brxrx30</name>
<cmt>v</cmt>
<desc>Rixensart Sentier n°30 Rue de Messe / Rue des Ecoles</desc>
<link href="https://chemins.be/rixensart/sentier/30"/><trkseg>
<trkpt lat="50.714853" lon="4.532976"><time>2026-05-08T09:18:49Z</time></trkpt>
<trkpt lat="50.715294" lon="4.533312"><time>2026-05-08T09:28:49Z</time></trkpt>
</trkseg>
</trk>
<trk>
<name>brxrx31</name>
<cmt>v</cmt>
<desc>Rixensart Sentier n°31 Rue de Nivelles / Avenue John F. Kennedy / Sentier Chapelle Robert</desc>
<link href="https://chemins.be/rixensart/sentier/31"/><trkseg>
<trkpt lat="50.700229" lon="4.515939"><time>2026-05-08T07:08:49Z</time></trkpt>
<trkpt lat="50.701004" lon="4.518449"><time>2026-05-08T07:18:49Z</time></trkpt>
</trkseg></trk>
<trk>
<name>brxrx31</name>
<cmt>s</cmt>
<desc>Rixensart Sentier n°31 Rue de Nivelles / Avenue John F. Kennedy / Sentier Chapelle Robert</desc>
<link href="https://chemins.be/rixensart/sentier/31"/><trkseg>
<trkpt lat="50.701004" lon="4.518449"><time>2026-05-08T07:18:49Z</time></trkpt>
<trkpt lat="50.702696" lon="4.521624"><time>2026-05-08T07:28:49Z</time></trkpt>
</trkseg></trk>
<trk>
<name>brxrx31</name>
<cmt>r</cmt>
<desc>Rixensart Sentier n°31 Rue de Nivelles / Avenue John F. Kennedy / Sentier Chapelle Robert</desc>
<link href="https://chemins.be/rixensart/sentier/31"/><trkseg>
<trkpt lat="50.702696" lon="4.521624"><time>2026-05-08T07:28:49Z</time></trkpt>
<trkpt lat="50.702880" lon="4.523032"><time>2026-05-08T07:38:49Z</time></trkpt>
</trkseg></trk>
<trk>
<name>brxrx31</name>
<cmt>s</cmt>
<desc>Rixensart Sentier n°31 Rue de Nivelles / Avenue John F. Kennedy / Sentier Chapelle Robert</desc>
<link href="https://chemins.be/rixensart/sentier/31"/><trkseg>
<trkpt lat="50.702880" lon="4.523032"><time>2026-05-08T07:38:49Z</time></trkpt>
<trkpt lat="50.703433" lon="4.523097"><time>2026-05-08T07:48:49Z</time></trkpt>
<trkpt lat="50.703600" lon="4.523320"><time>2026-05-08T07:58:49Z</time></trkpt>
</trkseg></trk>
<trk>
<name>brxrx31</name>
<cmt>v</cmt>
<desc>Rixensart Sentier n°31 Rue de Nivelles / Avenue John F. Kennedy / Sentier Chapelle Robert</desc>
<link href="https://chemins.be/rixensart/sentier/31"/><trkseg>
<trkpt lat="50.703600" lon="4.523320"><time>2026-05-08T07:58:49Z</time></trkpt>
<trkpt lat="50.703845" lon="4.523719"><time>2026-05-08T08:08:49Z</time></trkpt>
<trkpt lat="50.704105" lon="4.524088"><time>2026-05-08T08:18:49Z</time></trkpt>
<trkpt lat="50.704518" lon="4.524656"><time>2026-05-08T08:28:49Z</time></trkpt>
<trkpt lat="50.705191" lon="4.525620"><time>2026-05-08T08:38:49Z</time></trkpt>
<trkpt lat="50.705594" lon="4.526287"><time>2026-05-08T08:48:49Z</time></trkpt>
<trkpt lat="50.706356" lon="4.527861"><time>2026-05-08T08:58:49Z</time></trkpt>
</trkseg></trk>
<trk>
<name>brxrx31</name>
<cmt>s</cmt>
<desc>Rixensart Sentier n°31 Rue de Nivelles / Avenue John F. Kennedy / Sentier Chapelle Robert</desc>
<link href="https://chemins.be/rixensart/sentier/31"/><trkseg>
<trkpt lat="50.706356" lon="4.527861"><time>2026-05-08T08:58:49Z</time></trkpt>
<trkpt lat="50.707783" lon="4.529919"><time>2026-05-08T09:08:49Z</time></trkpt>
</trkseg>
</trk>
<trk>
<name>brxrx32</name>
<cmt>v</cmt>
<desc>Rixensart Sentier n°32 </desc>
<link href="https://chemins.be/rixensart/sentier/32"/><trkseg>
<trkpt lat="50.708213" lon="4.531025"><time>2026-05-08T07:08:49Z</time></trkpt>
<trkpt lat="50.707511" lon="4.531404"><time>2026-05-08T07:18:49Z</time></trkpt>
<trkpt lat="50.707690" lon="4.532198"><time>2026-05-08T07:28:49Z</time></trkpt>
<trkpt lat="50.707465" lon="4.532325"><time>2026-05-08T07:38:49Z</time></trkpt>
<trkpt lat="50.707204" lon="4.532734"><time>2026-05-08T07:48:49Z</time></trkpt>
<trkpt lat="50.707132" lon="4.532762"><time>2026-05-08T07:58:49Z</time></trkpt>
</trkseg>
</trk>
<trk>
<name>brxrx33</name>
<cmt>v</cmt>
<desc>Rixensart Sentier n°33 </desc>
<link href="https://chemins.be/rixensart/sentier/33"/><trkseg>
<trkpt lat="50.709710" lon="4.535889"><time>2026-05-08T07:08:49Z</time></trkpt>
<trkpt lat="50.709505" lon="4.536213"><time>2026-05-08T07:18:49Z</time></trkpt>
</trkseg></trk>
<trk>
<name>brxrx33</name>
<cmt>s</cmt>
<desc>Rixensart Sentier n°33 </desc>
<link href="https://chemins.be/rixensart/sentier/33"/><trkseg>
<trkpt lat="50.709505" lon="4.536213"><time>2026-05-08T07:18:49Z</time></trkpt>
<trkpt lat="50.707956" lon="4.537129"><time>2026-05-08T07:28:49Z</time></trkpt>
<trkpt lat="50.705522" lon="4.536433"><time>2026-05-08T07:38:49Z</time></trkpt>
<trkpt lat="50.704580" lon="4.535866"><time>2026-05-08T07:48:49Z</time></trkpt>
<trkpt lat="50.703282" lon="4.535971"><time>2026-05-08T07:58:49Z</time></trkpt>
<trkpt lat="50.700805" lon="4.536076"><time>2026-05-08T08:08:49Z</time></trkpt>
</trkseg>
</trk>
<trk>
<name>brxrx34</name>
<cmt>r</cmt>
<desc>Rixensart Sentier n°34 </desc>
<link href="https://chemins.be/rixensart/sentier/34"/><trkseg>
<trkpt lat="50.716320" lon="4.533663"><time>2026-05-08T07:08:49Z</time></trkpt>
<trkpt lat="50.717856" lon="4.534649"><time>2026-05-08T07:18:49Z</time></trkpt>
<trkpt lat="50.719100" lon="4.535393"><time>2026-05-08T07:28:49Z</time></trkpt>
</trkseg></trk>
<trk>
<name>brxrx34</name>
<cmt>s</cmt>
<desc>Rixensart Sentier n°34 </desc>
<link href="https://chemins.be/rixensart/sentier/34"/><trkseg>
<trkpt lat="50.719100" lon="4.535393"><time>2026-05-08T07:28:49Z</time></trkpt>
<trkpt lat="50.718905" lon="4.537506"><time>2026-05-08T07:38:49Z</time></trkpt>
<trkpt lat="50.719738" lon="4.539614"><time>2026-05-08T07:48:49Z</time></trkpt>
<trkpt lat="50.719726" lon="4.540415"><time>2026-05-08T07:58:49Z</time></trkpt>
</trkseg>
</trk>
<trk>
<name>brxrx35</name>
<cmt>r</cmt>
<desc>Rixensart Sentier n°35 Avenue de la Rochefoucauld / Sentier du Cimetière / Rue Adelin Hautfenne</desc>
<link href="https://chemins.be/rixensart/sentier/35"/><trkseg>
<trkpt lat="50.723293" lon="4.527876"><time>2026-05-08T07:08:49Z</time></trkpt>
<trkpt lat="50.721556" lon="4.531438"><time>2026-05-08T07:18:49Z</time></trkpt>
</trkseg></trk>
<trk>
<name>brxrx35</name>
<cmt>s</cmt>
<desc>Rixensart Sentier n°35 Avenue de la Rochefoucauld / Sentier du Cimetière / Rue Adelin Hautfenne</desc>
<link href="https://chemins.be/rixensart/sentier/35"/><trkseg>
<trkpt lat="50.721556" lon="4.531438"><time>2026-05-08T07:18:49Z</time></trkpt>
<trkpt lat="50.721281" lon="4.531469"><time>2026-05-08T07:28:49Z</time></trkpt>
</trkseg></trk>
<trk>
<name>brxrx35</name>
<cmt>q</cmt>
<desc>Rixensart Sentier n°35 Avenue de la Rochefoucauld / Sentier du Cimetière / Rue Adelin Hautfenne</desc>
<link href="https://chemins.be/rixensart/sentier/35"/><trkseg>
<trkpt lat="50.721281" lon="4.531469"><time>2026-05-08T07:28:49Z</time></trkpt>
<trkpt lat="50.721048" lon="4.531485"><time>2026-05-08T07:38:49Z</time></trkpt>
</trkseg></trk>
<trk>
<name>brxrx35</name>
<cmt>v</cmt>
<desc>Rixensart Sentier n°35 Avenue de la Rochefoucauld / Sentier du Cimetière / Rue Adelin Hautfenne</desc>
<link href="https://chemins.be/rixensart/sentier/35"/><trkseg>
<trkpt lat="50.721048" lon="4.531485"><time>2026-05-08T07:38:49Z</time></trkpt>
<trkpt lat="50.719180" lon="4.531176"><time>2026-05-08T07:48:49Z</time></trkpt>
<trkpt lat="50.717831" lon="4.531079"><time>2026-05-08T07:58:49Z</time></trkpt>
</trkseg></trk>
<trk>
<name>brxrx35</name>
<cmt>r</cmt>
<desc>Rixensart Sentier n°35 Avenue de la Rochefoucauld / Sentier du Cimetière / Rue Adelin Hautfenne</desc>
<link href="https://chemins.be/rixensart/sentier/35"/><trkseg>
<trkpt lat="50.717831" lon="4.531079"><time>2026-05-08T07:58:49Z</time></trkpt>
<trkpt lat="50.717459" lon="4.530936"><time>2026-05-08T08:08:49Z</time></trkpt>
<trkpt lat="50.717169" lon="4.531572"><time>2026-05-08T08:18:49Z</time></trkpt>
<trkpt lat="50.716390" lon="4.532152"><time>2026-05-08T08:28:49Z</time></trkpt>
<trkpt lat="50.715625" lon="4.533103"><time>2026-05-08T08:38:49Z</time></trkpt>
<trkpt lat="50.715267" lon="4.532881"><time>2026-05-08T08:48:49Z</time></trkpt>
</trkseg>
</trk>
<trk>
<name>brxrx36</name>
<cmt>v</cmt>
<desc>Rixensart Sentier n°36 Sentier Marguerite / Rue de l'Institut</desc>
<link href="https://chemins.be/rixensart/sentier/36"/><trkseg>
<trkpt lat="50.716748" lon="4.528548"><time>2026-05-08T07:08:49Z</time></trkpt>
<trkpt lat="50.716846" lon="4.528661"><time>2026-05-08T07:18:49Z</time></trkpt>
<trkpt lat="50.717224" lon="4.528748"><time>2026-05-08T07:28:49Z</time></trkpt>
<trkpt lat="50.717457" lon="4.529003"><time>2026-05-08T07:38:49Z</time></trkpt>
<trkpt lat="50.717528" lon="4.529527"><time>2026-05-08T07:48:49Z</time></trkpt>
<trkpt lat="50.717626" lon="4.530094"><time>2026-05-08T07:58:49Z</time></trkpt>
<trkpt lat="50.717815" lon="4.530024"><time>2026-05-08T08:08:49Z</time></trkpt>
<trkpt lat="50.717805" lon="4.531029"><time>2026-05-08T08:18:49Z</time></trkpt>
</trkseg>
</trk>
<trk>
<name>brxrx37</name>
<cmt>v</cmt>
<desc>Rixensart Sentier n°37 Sentier du Pont du Glain</desc>
<link href="https://chemins.be/rixensart/sentier/37"/><trkseg>
<trkpt lat="50.718189" lon="4.519617"><time>2026-05-08T07:08:49Z</time></trkpt>
<trkpt lat="50.718261" lon="4.519589"><time>2026-05-08T07:18:49Z</time></trkpt>
<trkpt lat="50.718594" lon="4.519406"><time>2026-05-08T07:28:49Z</time></trkpt>
<trkpt lat="50.718867" lon="4.519303"><time>2026-05-08T07:38:49Z</time></trkpt>
<trkpt lat="50.719053" lon="4.519153"><time>2026-05-08T07:48:49Z</time></trkpt>
<trkpt lat="50.719302" lon="4.518878"><time>2026-05-08T07:58:49Z</time></trkpt>
</trkseg></trk>
<trk>
<name>brxrx37</name>
<cmt>r</cmt>
<desc>Rixensart Sentier n°37 Sentier du Pont du Glain</desc>
<link href="https://chemins.be/rixensart/sentier/37"/><trkseg>
<trkpt lat="50.719302" lon="4.518878"><time>2026-05-08T07:58:49Z</time></trkpt>
<trkpt lat="50.720084" lon="4.518380"><time>2026-05-08T08:08:49Z</time></trkpt>
<trkpt lat="50.721058" lon="4.518106"><time>2026-05-08T08:18:49Z</time></trkpt>
<trkpt lat="50.721306" lon="4.517741"><time>2026-05-08T08:28:49Z</time></trkpt>
<trkpt lat="50.721462" lon="4.517124"><time>2026-05-08T08:38:49Z</time></trkpt>
</trkseg>
</trk>
<trk>
<name>brxrx38</name>
<cmt>v</cmt>
<desc>Rixensart Sentier n°38 Sentier du Carpu / Rue de la Grande Bruyère</desc>
<link href="https://chemins.be/rixensart/sentier/38"/><trkseg>
<trkpt lat="50.712996" lon="4.506382"><time>2026-05-08T07:08:49Z</time></trkpt>
<trkpt lat="50.713215" lon="4.506645"><time>2026-05-08T07:18:49Z</time></trkpt>
<trkpt lat="50.714194" lon="4.507725"><time>2026-05-08T07:28:49Z</time></trkpt>
<trkpt lat="50.714427" lon="4.508193"><time>2026-05-08T07:38:49Z</time></trkpt>
<trkpt lat="50.714679" lon="4.508547"><time>2026-05-08T07:48:49Z</time></trkpt>
<trkpt lat="50.715639" lon="4.509910"><time>2026-05-08T07:58:49Z</time></trkpt>
<trkpt lat="50.715607" lon="4.510518"><time>2026-05-08T08:08:49Z</time></trkpt>
<trkpt lat="50.715650" lon="4.510554"><time>2026-05-08T08:18:49Z</time></trkpt>
<trkpt lat="50.715727" lon="4.511354"><time>2026-05-08T08:28:49Z</time></trkpt>
<trkpt lat="50.715510" lon="4.511556"><time>2026-05-08T08:38:49Z</time></trkpt>
<trkpt lat="50.715447" lon="4.511765"><time>2026-05-08T08:48:49Z</time></trkpt>
<trkpt lat="50.715699" lon="4.511906"><time>2026-05-08T08:58:49Z</time></trkpt>
<trkpt lat="50.715670" lon="4.511912"><time>2026-05-08T09:08:49Z</time></trkpt>
<trkpt lat="50.715456" lon="4.512146"><time>2026-05-08T09:18:49Z</time></trkpt>
</trkseg></trk>
<trk>
<name>brxrx38</name>
<cmt>q</cmt>
<desc>Rixensart Sentier n°38 Sentier du Carpu / Rue de la Grande Bruyère</desc>
<link href="https://chemins.be/rixensart/sentier/38"/><trkseg>
<trkpt lat="50.715456" lon="4.512146"><time>2026-05-08T09:18:49Z</time></trkpt>
<trkpt lat="50.715990" lon="4.514012"><time>2026-05-08T09:28:49Z</time></trkpt>
<trkpt lat="50.716441" lon="4.515590"><time>2026-05-08T09:38:49Z</time></trkpt>
</trkseg></trk>
<trk>
<name>brxrx38</name>
<cmt>r</cmt>
<desc>Rixensart Sentier n°38 Sentier du Carpu / Rue de la Grande Bruyère</desc>
<link href="https://chemins.be/rixensart/sentier/38"/><trkseg>
<trkpt lat="50.716441" lon="4.515590"><time>2026-05-08T09:38:49Z</time></trkpt>
<trkpt lat="50.717393" lon="4.516740"><time>2026-05-08T09:48:49Z</time></trkpt>
</trkseg>
</trk>
<trk>
<name>brxrx4</name>
<cmt>v</cmt>
<desc>Rixensart Chemin n°4 Sentier Baillois / Chemin du Belloy</desc>
<link href="https://chemins.be/rixensart/chemin/4"/><trkseg>
<trkpt lat="50.710070" lon="4.505787"><time>2026-05-08T07:08:49Z</time></trkpt>
<trkpt lat="50.710088" lon="4.505688"><time>2026-05-08T07:18:49Z</time></trkpt>
<trkpt lat="50.710368" lon="4.505221"><time>2026-05-08T07:28:49Z</time></trkpt>
<trkpt lat="50.710648" lon="4.503891"><time>2026-05-08T07:38:49Z</time></trkpt>
<trkpt lat="50.710865" lon="4.502901"><time>2026-05-08T07:48:49Z</time></trkpt>
</trkseg>
</trk>
<trk>
<name>brxrx40</name>
<cmt>q</cmt>
<desc>Rixensart Sentier n°40 </desc>
<link href="https://chemins.be/rixensart/sentier/40"/><trkseg>
<trkpt lat="50.719051" lon="4.528962"><time>2026-05-08T07:08:49Z</time></trkpt>
<trkpt lat="50.718997" lon="4.528439"><time>2026-05-08T07:18:49Z</time></trkpt>
<trkpt lat="50.719154" lon="4.527890"><time>2026-05-08T07:28:49Z</time></trkpt>
<trkpt lat="50.719089" lon="4.527529"><time>2026-05-08T07:38:49Z</time></trkpt>
<trkpt lat="50.718714" lon="4.527675"><time>2026-05-08T07:48:49Z</time></trkpt>
</trkseg>
</trk>
<trk>
<name>brxrx41</name>
<cmt>s</cmt>
<desc>Rixensart Sentier n°41 </desc>
<link href="https://chemins.be/rixensart/sentier/41"/><trkseg>
<trkpt lat="50.714802" lon="4.530540"><time>2026-05-08T07:08:49Z</time></trkpt>
<trkpt lat="50.714916" lon="4.529347"><time>2026-05-08T07:18:49Z</time></trkpt>
<trkpt lat="50.714910" lon="4.528653"><time>2026-05-08T07:28:49Z</time></trkpt>
<trkpt lat="50.715372" lon="4.528662"><time>2026-05-08T07:38:49Z</time></trkpt>
<trkpt lat="50.715834" lon="4.528053"><time>2026-05-08T07:48:49Z</time></trkpt>
<trkpt lat="50.715932" lon="4.527606"><time>2026-05-08T07:58:49Z</time></trkpt>
</trkseg>
</trk>
<trk>
<name>brxrx42</name>
<cmt>q</cmt>
<desc>Rixensart Chemin n°42 Sentier Passiche</desc>
<link href="https://chemins.be/rixensart/chemin/42"/><trkseg>
<trkpt lat="50.710409" lon="4.505179"><time>2026-05-08T07:08:49Z</time></trkpt>
<trkpt lat="50.711115" lon="4.505794"><time>2026-05-08T07:18:49Z</time></trkpt>
</trkseg></trk>
<trk>
<name>brxrx42</name>
<cmt>v</cmt>
<desc>Rixensart Chemin n°42 Sentier Passiche</desc>
<link href="https://chemins.be/rixensart/chemin/42"/><trkseg>
<trkpt lat="50.711115" lon="4.505794"><time>2026-05-08T07:18:49Z</time></trkpt>
<trkpt lat="50.712907" lon="4.505801"><time>2026-05-08T07:28:49Z</time></trkpt>
<trkpt lat="50.713104" lon="4.505976"><time>2026-05-08T07:38:49Z</time></trkpt>
</trkseg>
</trk>
<trk>
<name>brxrx43</name>
<cmt>v</cmt>
<desc>Rixensart Sentier n°43 Sentier du Printemps / Sentier de la fontaine</desc>
<link href="https://chemins.be/rixensart/sentier/43"/><trkseg>
<trkpt lat="50.710713" lon="4.509399"><time>2026-05-08T07:08:49Z</time></trkpt>
<trkpt lat="50.711101" lon="4.508874"><time>2026-05-08T07:18:49Z</time></trkpt>
<trkpt lat="50.711217" lon="4.508721"><time>2026-05-08T07:28:49Z</time></trkpt>
<trkpt lat="50.711389" lon="4.508283"><time>2026-05-08T07:38:49Z</time></trkpt>
<trkpt lat="50.711461" lon="4.508141"><time>2026-05-08T07:48:49Z</time></trkpt>
<trkpt lat="50.711848" lon="4.507817"><time>2026-05-08T07:58:49Z</time></trkpt>
<trkpt lat="50.712062" lon="4.507725"><time>2026-05-08T08:08:49Z</time></trkpt>
<trkpt lat="50.712248" lon="4.507602"><time>2026-05-08T08:18:49Z</time></trkpt>
<trkpt lat="50.712576" lon="4.507578"><time>2026-05-08T08:28:49Z</time></trkpt>
</trkseg>
</trk>
<trk>
<name>brxrx44</name>
<cmt>v</cmt>
<desc>Rixensart Sentier n°44 Sentier des Choristes / Chemin de la voie du Tram / Sentier du Val du Heron</desc>
<link href="https://chemins.be/rixensart/sentier/44"/><trkseg>
<trkpt lat="50.708868" lon="4.510176"><time>2026-05-08T07:08:49Z</time></trkpt>
<trkpt lat="50.708856" lon="4.510375"><time>2026-05-08T07:18:49Z</time></trkpt>
<trkpt lat="50.708740" lon="4.510688"><time>2026-05-08T07:28:49Z</time></trkpt>
<trkpt lat="50.708573" lon="4.511046"><time>2026-05-08T07:38:49Z</time></trkpt>
<trkpt lat="50.708592" lon="4.511376"><time>2026-05-08T07:48:49Z</time></trkpt>
<trkpt lat="50.708616" lon="4.511408"><time>2026-05-08T07:58:49Z</time></trkpt>
<trkpt lat="50.708618" lon="4.511872"><time>2026-05-08T08:08:49Z</time></trkpt>
<trkpt lat="50.708449" lon="4.512168"><time>2026-05-08T08:18:49Z</time></trkpt>
</trkseg></trk>
<trk>
<name>brxrx44</name>
<cmt>q</cmt>
<desc>Rixensart Sentier n°44 Sentier des Choristes / Chemin de la voie du Tram / Sentier du Val du Heron</desc>
<link href="https://chemins.be/rixensart/sentier/44"/><trkseg>
<trkpt lat="50.708449" lon="4.512168"><time>2026-05-08T08:18:49Z</time></trkpt>
<trkpt lat="50.708062" lon="4.513990"><time>2026-05-08T08:28:49Z</time></trkpt>
</trkseg>
</trk>
<trk>
<name>brxrx45</name>
<cmt>s</cmt>
<desc>Rixensart Sentier n°45 </desc>
<link href="https://chemins.be/rixensart/sentier/45"/><trkseg>
<trkpt lat="50.706921" lon="4.509628"><time>2026-05-08T07:08:49Z</time></trkpt>
<trkpt lat="50.707329" lon="4.511273"><time>2026-05-08T07:18:49Z</time></trkpt>
</trkseg>
</trk>
<trk>
<name>brxrx46</name>
<cmt>r</cmt>
<desc>Rixensart Sentier n°46 Chemin Denis / Rue de la Reine / Sentier de la reine</desc>
<link href="https://chemins.be/rixensart/sentier/46"/><trkseg>
<trkpt lat="50.705338" lon="4.507463"><time>2026-05-08T07:08:49Z</time></trkpt>
<trkpt lat="50.706173" lon="4.506032"><time>2026-05-08T07:18:49Z</time></trkpt>
<trkpt lat="50.706574" lon="4.505850"><time>2026-05-08T07:28:49Z</time></trkpt>
</trkseg></trk>
<trk>
<name>brxrx46</name>
<cmt>v</cmt>
<desc>Rixensart Sentier n°46 Chemin Denis / Rue de la Reine / Sentier de la reine</desc>
<link href="https://chemins.be/rixensart/sentier/46"/><trkseg>
<trkpt lat="50.706574" lon="4.505850"><time>2026-05-08T07:28:49Z</time></trkpt>
<trkpt lat="50.707097" lon="4.506655"><time>2026-05-08T07:38:49Z</time></trkpt>
</trkseg></trk>
<trk>
<name>brxrx46</name>
<cmt>r</cmt>
<desc>Rixensart Sentier n°46 Chemin Denis / Rue de la Reine / Sentier de la reine</desc>
<link href="https://chemins.be/rixensart/sentier/46"/><trkseg>
<trkpt lat="50.707097" lon="4.506655"><time>2026-05-08T07:38:49Z</time></trkpt>
<trkpt lat="50.707627" lon="4.506192"><time>2026-05-08T07:48:49Z</time></trkpt>
</trkseg></trk>
<trk>
<name>brxrx46</name>
<cmt>v</cmt>
<desc>Rixensart Sentier n°46 Chemin Denis / Rue de la Reine / Sentier de la reine</desc>
<link href="https://chemins.be/rixensart/sentier/46"/><trkseg>
<trkpt lat="50.707627" lon="4.506192"><time>2026-05-08T07:48:49Z</time></trkpt>
<trkpt lat="50.708084" lon="4.505654"><time>2026-05-08T07:58:49Z</time></trkpt>
<trkpt lat="50.708489" lon="4.505074"><time>2026-05-08T08:08:49Z</time></trkpt>
<trkpt lat="50.708552" lon="4.504919"><time>2026-05-08T08:18:49Z</time></trkpt>
</trkseg>
</trk>
<trk>
<name>brxrx47</name>
<cmt>r</cmt>
<desc>Rixensart Sentier n°47 Rue du Bazar</desc>
<link href="https://chemins.be/rixensart/sentier/47"/><trkseg>
<trkpt lat="50.702625" lon="4.510206"><time>2026-05-08T07:08:49Z</time></trkpt>
<trkpt lat="50.703594" lon="4.509062"><time>2026-05-08T07:18:49Z</time></trkpt>
<trkpt lat="50.704251" lon="4.508382"><time>2026-05-08T07:28:49Z</time></trkpt>
<trkpt lat="50.704613" lon="4.507517"><time>2026-05-08T07:38:49Z</time></trkpt>
<trkpt lat="50.704872" lon="4.507259"><time>2026-05-08T07:48:49Z</time></trkpt>
</trkseg>
</trk>
<trk>
<name>brxrx47bis</name>
<cmt>r</cmt>
<desc>Rixensart Sentier n°47bis </desc>
<link href="https://chemins.be/rixensart/sentier/47bis"/><trkseg>
<trkpt lat="50.703599" lon="4.509086"><time>2026-05-08T07:08:49Z</time></trkpt>
<trkpt lat="50.702742" lon="4.508353"><time>2026-05-08T07:18:49Z</time></trkpt>
<trkpt lat="50.702514" lon="4.508417"><time>2026-05-08T07:28:49Z</time></trkpt>
</trkseg>
</trk>
<trk>
<name>brxrx48</name>
<cmt>v</cmt>
<desc>Rixensart Sentier n°48 Rue Dyna Beumer</desc>
<link href="https://chemins.be/rixensart/sentier/48"/><trkseg>
<trkpt lat="50.710114" lon="4.506467"><time>2026-05-08T07:08:49Z</time></trkpt>
<trkpt lat="50.709387" lon="4.507894"><time>2026-05-08T07:18:49Z</time></trkpt>
<trkpt lat="50.709258" lon="4.508135"><time>2026-05-08T07:28:49Z</time></trkpt>
</trkseg></trk>
<trk>
<name>brxrx48</name>
<cmt>r</cmt>
<desc>Rixensart Sentier n°48 Rue Dyna Beumer</desc>
<link href="https://chemins.be/rixensart/sentier/48"/><trkseg>
<trkpt lat="50.709258" lon="4.508135"><time>2026-05-08T07:28:49Z</time></trkpt>
<trkpt lat="50.708853" lon="4.508898"><time>2026-05-08T07:38:49Z</time></trkpt>
</trkseg></trk>
<trk>
<name>brxrx48</name>
<cmt>v</cmt>
<desc>Rixensart Sentier n°48 Rue Dyna Beumer</desc>
<link href="https://chemins.be/rixensart/sentier/48"/><trkseg>
<trkpt lat="50.708853" lon="4.508898"><time>2026-05-08T07:38:49Z</time></trkpt>
<trkpt lat="50.708337" lon="4.510025"><time>2026-05-08T07:48:49Z</time></trkpt>
</trkseg>
</trk>
<trk>
<name>brxrx49</name>
<cmt>q</cmt>
<desc>Rixensart Sentier n°49 Sentier Dyna Beumer / Rue Lambermont / Rue de la Reine / Chemin Denis / Rue de la Bassette</desc>
<link href="https://chemins.be/rixensart/sentier/49"/><trkseg>
<trkpt lat="50.709234" lon="4.510058"><time>2026-05-08T07:08:49Z</time></trkpt>
<trkpt lat="50.709093" lon="4.509594"><time>2026-05-08T07:18:49Z</time></trkpt>
<trkpt lat="50.708779" lon="4.509132"><time>2026-05-08T07:28:49Z</time></trkpt>
</trkseg></trk>
<trk>
<name>brxrx49</name>
<cmt>v</cmt>
<desc>Rixensart Sentier n°49 Sentier Dyna Beumer / Rue Lambermont / Rue de la Reine / Chemin Denis / Rue de la Bassette</desc>
<link href="https://chemins.be/rixensart/sentier/49"/><trkseg>
<trkpt lat="50.708779" lon="4.509132"><time>2026-05-08T07:28:49Z</time></trkpt>
<trkpt lat="50.708878" lon="4.508835"><time>2026-05-08T07:38:49Z</time></trkpt>
</trkseg></trk>
<trk>
<name>brxrx49</name>
<cmt>r</cmt>
<desc>Rixensart Sentier n°49 Sentier Dyna Beumer / Rue Lambermont / Rue de la Reine / Chemin Denis / Rue de la Bassette</desc>
<link href="https://chemins.be/rixensart/sentier/49"/><trkseg>
<trkpt lat="50.708878" lon="4.508835"><time>2026-05-08T07:38:49Z</time></trkpt>
<trkpt lat="50.708484" lon="4.508128"><time>2026-05-08T07:48:49Z</time></trkpt>
<trkpt lat="50.708200" lon="4.507231"><time>2026-05-08T07:58:49Z</time></trkpt>
<trkpt lat="50.708038" lon="4.507071"><time>2026-05-08T08:08:49Z</time></trkpt>
<trkpt lat="50.707621" lon="4.506220"><time>2026-05-08T08:18:49Z</time></trkpt>
<trkpt lat="50.707097" lon="4.506680"><time>2026-05-08T08:28:49Z</time></trkpt>
</trkseg></trk>
<trk>
<name>brxrx49</name>
<cmt>v</cmt>
<desc>Rixensart Sentier n°49 Sentier Dyna Beumer / Rue Lambermont / Rue de la Reine / Chemin Denis / Rue de la Bassette</desc>
<link href="https://chemins.be/rixensart/sentier/49"/><trkseg>
<trkpt lat="50.707097" lon="4.506680"><time>2026-05-08T08:28:49Z</time></trkpt>
<trkpt lat="50.706543" lon="4.505848"><time>2026-05-08T08:38:49Z</time></trkpt>
<trkpt lat="50.705375" lon="4.504234"><time>2026-05-08T08:48:49Z</time></trkpt>
</trkseg>
</trk>
<trk>
<name>brxrx5</name>
<cmt>v</cmt>
<desc>Rixensart Chemin n°5 Sentier du Plagneau / sentier du plagniau / Rue du Plagniau</desc>
<link href="https://chemins.be/rixensart/chemin/5"/><trkseg>
<trkpt lat="50.724872" lon="4.548885"><time>2026-05-08T07:08:49Z</time></trkpt>
<trkpt lat="50.724514" lon="4.547368"><time>2026-05-08T07:18:49Z</time></trkpt>
<trkpt lat="50.724399" lon="4.546447"><time>2026-05-08T07:28:49Z</time></trkpt>
<trkpt lat="50.724069" lon="4.544803"><time>2026-05-08T07:38:49Z</time></trkpt>
<trkpt lat="50.723738" lon="4.543881"><time>2026-05-08T07:48:49Z</time></trkpt>
<trkpt lat="50.722533" lon="4.537985"><time>2026-05-08T07:58:49Z</time></trkpt>
</trkseg></trk>
<trk>
<name>brxrx5</name>
<cmt>r</cmt>
<desc>Rixensart Chemin n°5 Sentier du Plagneau / sentier du plagniau / Rue du Plagniau</desc>
<link href="https://chemins.be/rixensart/chemin/5"/><trkseg>
<trkpt lat="50.722533" lon="4.537985"><time>2026-05-08T07:58:49Z</time></trkpt>
<trkpt lat="50.721205" lon="4.532229"><time>2026-05-08T08:08:49Z</time></trkpt>
<trkpt lat="50.720692" lon="4.529836"><time>2026-05-08T08:18:49Z</time></trkpt>
<trkpt lat="50.720290" lon="4.528248"><time>2026-05-08T08:28:49Z</time></trkpt>
</trkseg>
</trk>
<trk>
<name>brxrx50</name>
<cmt>r</cmt>
<desc>Rixensart Sentier n°50 Rue de la Reine</desc>
<link href="https://chemins.be/rixensart/sentier/50"/><trkseg>
<trkpt lat="50.707107" lon="4.506690"><time>2026-05-08T07:08:49Z</time></trkpt>
<trkpt lat="50.706812" lon="4.507340"><time>2026-05-08T07:18:49Z</time></trkpt>
<trkpt lat="50.706588" lon="4.508429"><time>2026-05-08T07:28:49Z</time></trkpt>
</trkseg>
</trk>
<trk>
<name>brxrx51</name>
<cmt>v</cmt>
<desc>Rixensart Sentier n°51 Sentier de la fontaine</desc>
<link href="https://chemins.be/rixensart/sentier/51"/><trkseg>
<trkpt lat="50.710094" lon="4.508505"><time>2026-05-08T07:08:49Z</time></trkpt>
<trkpt lat="50.710310" lon="4.508265"><time>2026-05-08T07:18:49Z</time></trkpt>
<trkpt lat="50.711381" lon="4.507362"><time>2026-05-08T07:28:49Z</time></trkpt>
<trkpt lat="50.711704" lon="4.507420"><time>2026-05-08T07:38:49Z</time></trkpt>
<trkpt lat="50.712226" lon="4.507591"><time>2026-05-08T07:48:49Z</time></trkpt>
</trkseg>
</trk>
<trk>
<name>brxrx52</name>
<cmt>r</cmt>
<desc>Rixensart Sentier n°52 Rue de la Taillette</desc>
<link href="https://chemins.be/rixensart/sentier/52"/><trkseg>
<trkpt lat="50.711653" lon="4.515493"><time>2026-05-08T07:08:49Z</time></trkpt>
<trkpt lat="50.712695" lon="4.512997"><time>2026-05-08T07:18:49Z</time></trkpt>
<trkpt lat="50.713112" lon="4.512811"><time>2026-05-08T07:28:49Z</time></trkpt>
</trkseg>
</trk>
<trk>
<name>brxrx54</name>
<cmt>r</cmt>
<desc>Rixensart Sentier n°54 Rue des Fleurs</desc>
<link href="https://chemins.be/rixensart/sentier/54"/><trkseg>
<trkpt lat="50.718240" lon="4.518849"><time>2026-05-08T07:08:49Z</time></trkpt>
<trkpt lat="50.718592" lon="4.519443"><time>2026-05-08T07:18:49Z</time></trkpt>
<trkpt lat="50.718828" lon="4.519596"><time>2026-05-08T07:28:49Z</time></trkpt>
</trkseg></trk>
<trk>
<name>brxrx54</name>
<cmt>s</cmt>
<desc>Rixensart Sentier n°54 Rue des Fleurs</desc>
<link href="https://chemins.be/rixensart/sentier/54"/><trkseg>
<trkpt lat="50.718828" lon="4.519596"><time>2026-05-08T07:28:49Z</time></trkpt>
<trkpt lat="50.719410" lon="4.519979"><time>2026-05-08T07:38:49Z</time></trkpt>
<trkpt lat="50.719857" lon="4.520564"><time>2026-05-08T07:48:49Z</time></trkpt>
<trkpt lat="50.720404" lon="4.521520"><time>2026-05-08T07:58:49Z</time></trkpt>
<trkpt lat="50.720616" lon="4.521952"><time>2026-05-08T08:08:49Z</time></trkpt>
<trkpt lat="50.720733" lon="4.523602"><time>2026-05-08T08:18:49Z</time></trkpt>
<trkpt lat="50.721127" lon="4.524412"><time>2026-05-08T08:28:49Z</time></trkpt>
<trkpt lat="50.720940" lon="4.526477"><time>2026-05-08T08:38:49Z</time></trkpt>
<trkpt lat="50.720346" lon="4.528006"><time>2026-05-08T08:48:49Z</time></trkpt>
</trkseg>
</trk>
<trk>
<name>brxrx55</name>
<cmt>s</cmt>
<desc>Rixensart Sentier n°55 </desc>
<link href="https://chemins.be/rixensart/sentier/55"/><trkseg>
<trkpt lat="50.718238" lon="4.516445"><time>2026-05-08T07:08:49Z</time></trkpt>
<trkpt lat="50.719041" lon="4.514423"><time>2026-05-08T07:18:49Z</time></trkpt>
<trkpt lat="50.719589" lon="4.514750"><time>2026-05-08T07:28:49Z</time></trkpt>
</trkseg>
</trk>
<trk>
<name>brxrx55bis</name>
<cmt>s</cmt>
<desc>Rixensart Sentier n°55bis </desc>
<link href="https://chemins.be/rixensart/sentier/55bis"/><trkseg>
<trkpt lat="50.718956" lon="4.516481"><time>2026-05-08T07:08:49Z</time></trkpt>
<trkpt lat="50.719554" lon="4.514973"><time>2026-05-08T07:18:49Z</time></trkpt>
<trkpt lat="50.719506" lon="4.514710"><time>2026-05-08T07:28:49Z</time></trkpt>
</trkseg>
</trk>
<trk>
<name>brxrx56</name>
<cmt>v</cmt>
<desc>Rixensart Sentier n°56 Sentier de Manandise</desc>
<link href="https://chemins.be/rixensart/sentier/56"/><trkseg>
<trkpt lat="50.718642" lon="4.516475"><time>2026-05-08T07:08:49Z</time></trkpt>
<trkpt lat="50.718669" lon="4.516886"><time>2026-05-08T07:18:49Z</time></trkpt>
<trkpt lat="50.718489" lon="4.517310"><time>2026-05-08T07:28:49Z</time></trkpt>
<trkpt lat="50.718119" lon="4.518187"><time>2026-05-08T07:38:49Z</time></trkpt>
</trkseg>
</trk>
<trk>
<name>brxrx57</name>
<cmt>r</cmt>
<desc>Rixensart Sentier n°57 S57 / Sentier Belle-Dame</desc>
<link href="https://chemins.be/rixensart/sentier/57"/><trkseg>
<trkpt lat="50.713135" lon="4.546107"><time>2026-05-08T07:08:49Z</time></trkpt>
<trkpt lat="50.712893" lon="4.545780"><time>2026-05-08T07:18:49Z</time></trkpt>
<trkpt lat="50.711797" lon="4.545536"><time>2026-05-08T07:28:49Z</time></trkpt>
</trkseg></trk>
<trk>
<name>brxrx57</name>
<cmt>s</cmt>
<desc>Rixensart Sentier n°57 S57 / Sentier Belle-Dame</desc>
<link href="https://chemins.be/rixensart/sentier/57"/><trkseg>
<trkpt lat="50.711797" lon="4.545536"><time>2026-05-08T07:28:49Z</time></trkpt>
<trkpt lat="50.709818" lon="4.540077"><time>2026-05-08T07:38:49Z</time></trkpt>
</trkseg></trk>
<trk>
<name>brxrx57</name>
<cmt>v</cmt>
<desc>Rixensart Sentier n°57 S57 / Sentier Belle-Dame</desc>
<link href="https://chemins.be/rixensart/sentier/57"/><trkseg>
<trkpt lat="50.709818" lon="4.540077"><time>2026-05-08T07:38:49Z</time></trkpt>
<trkpt lat="50.709361" lon="4.539155"><time>2026-05-08T07:48:49Z</time></trkpt>
</trkseg></trk>
<trk>
<name>brxrx57</name>
<cmt>s</cmt>
<desc>Rixensart Sentier n°57 S57 / Sentier Belle-Dame</desc>
<link href="https://chemins.be/rixensart/sentier/57"/><trkseg>
<trkpt lat="50.709361" lon="4.539155"><time>2026-05-08T07:48:49Z</time></trkpt>
<trkpt lat="50.709604" lon="4.538689"><time>2026-05-08T07:58:49Z</time></trkpt>
<trkpt lat="50.709821" lon="4.537869"><time>2026-05-08T08:08:49Z</time></trkpt>
</trkseg></trk>
<trk>
<name>brxrx57</name>
<cmt>v</cmt>
<desc>Rixensart Sentier n°57 S57 / Sentier Belle-Dame</desc>
<link href="https://chemins.be/rixensart/sentier/57"/><trkseg>
<trkpt lat="50.709821" lon="4.537869"><time>2026-05-08T08:08:49Z</time></trkpt>
<trkpt lat="50.710093" lon="4.536284"><time>2026-05-08T08:18:49Z</time></trkpt>
<trkpt lat="50.710075" lon="4.536156"><time>2026-05-08T08:28:49Z</time></trkpt>
<trkpt lat="50.710004" lon="4.535972"><time>2026-05-08T08:38:49Z</time></trkpt>
</trkseg>
</trk>
<trk>
<name>brxrx58</name>
<cmt>d</cmt>
<desc>Rixensart Sentier n°58 </desc>
<link href="https://chemins.be/rixensart/sentier/58"/><trkseg>
<trkpt lat="50.714325" lon="4.537779"><time>2026-05-08T07:08:49Z</time></trkpt>
<trkpt lat="50.714314" lon="4.538088"><time>2026-05-08T07:18:49Z</time></trkpt>
<trkpt lat="50.714642" lon="4.538138"><time>2026-05-08T07:28:49Z</time></trkpt>
<trkpt lat="50.714609" lon="4.538267"><time>2026-05-08T07:38:49Z</time></trkpt>
<trkpt lat="50.714420" lon="4.538236"><time>2026-05-08T07:48:49Z</time></trkpt>
<trkpt lat="50.714420" lon="4.538354"><time>2026-05-08T07:58:49Z</time></trkpt>
<trkpt lat="50.714542" lon="4.538448"><time>2026-05-08T08:08:49Z</time></trkpt>
</trkseg></trk>
<trk>
<name>brxrx58</name>
<cmt>s</cmt>
<desc>Rixensart Sentier n°58 </desc>
<link href="https://chemins.be/rixensart/sentier/58"/><trkseg>
<trkpt lat="50.714542" lon="4.538448"><time>2026-05-08T08:08:49Z</time></trkpt>
<trkpt lat="50.714850" lon="4.539230"><time>2026-05-08T08:18:49Z</time></trkpt>
<trkpt lat="50.715208" lon="4.539733"><time>2026-05-08T08:28:49Z</time></trkpt>
<trkpt lat="50.714786" lon="4.543633"><time>2026-05-08T08:38:49Z</time></trkpt>
<trkpt lat="50.715804" lon="4.547052"><time>2026-05-08T08:48:49Z</time></trkpt>
<trkpt lat="50.716343" lon="4.547365"><time>2026-05-08T08:58:49Z</time></trkpt>
<trkpt lat="50.717326" lon="4.550492"><time>2026-05-08T09:08:49Z</time></trkpt>
</trkseg>
</trk>
<trk>
<name>brxrx59</name>
<cmt>s</cmt>
<desc>Rixensart Sentier n°59 </desc>
<link href="https://chemins.be/rixensart/sentier/59"/><trkseg>
<trkpt lat="50.727150" lon="4.542725"><time>2026-05-08T07:08:49Z</time></trkpt>
<trkpt lat="50.726748" lon="4.542597"><time>2026-05-08T07:18:49Z</time></trkpt>
<trkpt lat="50.726400" lon="4.542803"><time>2026-05-08T07:28:49Z</time></trkpt>
<trkpt lat="50.726153" lon="4.542777"><time>2026-05-08T07:38:49Z</time></trkpt>
<trkpt lat="50.722450" lon="4.545223"><time>2026-05-08T07:48:49Z</time></trkpt>
<trkpt lat="50.720424" lon="4.545884"><time>2026-05-08T07:58:49Z</time></trkpt>
<trkpt lat="50.718994" lon="4.547292"><time>2026-05-08T08:08:49Z</time></trkpt>
<trkpt lat="50.717696" lon="4.548957"><time>2026-05-08T08:18:49Z</time></trkpt>
<trkpt lat="50.716935" lon="4.549558"><time>2026-05-08T08:28:49Z</time></trkpt>
<trkpt lat="50.716239" lon="4.550467"><time>2026-05-08T08:38:49Z</time></trkpt>
</trkseg>
</trk>
<trk>
<name>brxrx60</name>
<cmt>s</cmt>
<desc>Rixensart Sentier n°60 </desc>
<link href="https://chemins.be/rixensart/sentier/60"/><trkseg>
<trkpt lat="50.699989" lon="4.528651"><time>2026-05-08T07:08:49Z</time></trkpt>
<trkpt lat="50.698752" lon="4.527664"><time>2026-05-08T07:18:49Z</time></trkpt>
<trkpt lat="50.696482" lon="4.526355"><time>2026-05-08T07:28:49Z</time></trkpt>
</trkseg>
</trk>
<trk>
<name>brxrx61</name>
<cmt>r</cmt>
<desc>Rixensart Sentier n°61 Sentier du Bois Moué</desc>
<link href="https://chemins.be/rixensart/sentier/61"/><trkseg>
<trkpt lat="50.701997" lon="4.513670"><time>2026-05-08T07:08:49Z</time></trkpt>
<trkpt lat="50.700756" lon="4.514582"><time>2026-05-08T07:18:49Z</time></trkpt>
<trkpt lat="50.700629" lon="4.514835"><time>2026-05-08T07:28:49Z</time></trkpt>
</trkseg></trk>
<trk>
<name>brxrx61</name>
<cmt>v</cmt>
<desc>Rixensart Sentier n°61 Sentier du Bois Moué</desc>
<link href="https://chemins.be/rixensart/sentier/61"/><trkseg>
<trkpt lat="50.700629" lon="4.514835"><time>2026-05-08T07:28:49Z</time></trkpt>
<trkpt lat="50.700367" lon="4.515653"><time>2026-05-08T07:38:49Z</time></trkpt>
<trkpt lat="50.700114" lon="4.516558"><time>2026-05-08T07:48:49Z</time></trkpt>
<trkpt lat="50.698908" lon="4.520195"><time>2026-05-08T07:58:49Z</time></trkpt>
</trkseg></trk>
<trk>
<name>brxrx61</name>
<cmt>s</cmt>
<desc>Rixensart Sentier n°61 Sentier du Bois Moué</desc>
<link href="https://chemins.be/rixensart/sentier/61"/><trkseg>
<trkpt lat="50.698908" lon="4.520195"><time>2026-05-08T07:58:49Z</time></trkpt>
<trkpt lat="50.698548" lon="4.521752"><time>2026-05-08T08:08:49Z</time></trkpt>
</trkseg>
</trk>
<trk>
<name>brxrx62</name>
<cmt>b</cmt>
<desc>Rixensart Sentier n°62 </desc>
<link href="https://chemins.be/rixensart/sentier/62"/><trkseg>
<trkpt lat="50.705613" lon="4.501787"><time>2026-05-08T07:08:49Z</time></trkpt>
<trkpt lat="50.706126" lon="4.503584"><time>2026-05-08T07:18:49Z</time></trkpt>
</trkseg>
</trk>
<trk>
<name>brxrx63</name>
<cmt>s</cmt>
<desc>Rixensart Sentier n°63 </desc>
<link href="https://chemins.be/rixensart/sentier/63"/><trkseg>
<trkpt lat="50.715068" lon="4.520214"><time>2026-05-08T07:08:49Z</time></trkpt>
<trkpt lat="50.714429" lon="4.519842"><time>2026-05-08T07:18:49Z</time></trkpt>
<trkpt lat="50.713954" lon="4.518812"><time>2026-05-08T07:28:49Z</time></trkpt>
<trkpt lat="50.713641" lon="4.518297"><time>2026-05-08T07:38:49Z</time></trkpt>
<trkpt lat="50.713574" lon="4.518405"><time>2026-05-08T07:48:49Z</time></trkpt>
<trkpt lat="50.712894" lon="4.517453"><time>2026-05-08T07:58:49Z</time></trkpt>
<trkpt lat="50.711544" lon="4.515565"><time>2026-05-08T08:08:49Z</time></trkpt>
</trkseg>
</trk>
<trk>
<name>brxrx64</name>
<cmt>v</cmt>
<desc>Rixensart Sentier n°64 Drève des Etangs</desc>
<link href="https://chemins.be/rixensart/sentier/64"/><trkseg>
<trkpt lat="50.714164" lon="4.537766"><time>2026-05-08T07:08:49Z</time></trkpt>
<trkpt lat="50.714383" lon="4.537907"><time>2026-05-08T07:18:49Z</time></trkpt>
<trkpt lat="50.714765" lon="4.537813"><time>2026-05-08T07:28:49Z</time></trkpt>
<trkpt lat="50.717399" lon="4.538406"><time>2026-05-08T07:38:49Z</time></trkpt>
<trkpt lat="50.718432" lon="4.539231"><time>2026-05-08T07:48:49Z</time></trkpt>
<trkpt lat="50.720363" lon="4.541061"><time>2026-05-08T07:58:49Z</time></trkpt>
<trkpt lat="50.723962" lon="4.544349"><time>2026-05-08T08:08:49Z</time></trkpt>
</trkseg>
</trk>
<trk>
<name>brxrxi1</name>
<cmt>s</cmt>
<desc>Rixensart Sentier n°i1 </desc>
<link href="https://chemins.be/rixensart/sentier/i1"/><trkseg>
<trkpt lat="50.728003" lon="4.547140"><time>2026-05-08T07:08:49Z</time></trkpt>
<trkpt lat="50.728003" lon="4.546956"><time>2026-05-08T07:18:49Z</time></trkpt>
<trkpt lat="50.726803" lon="4.543992"><time>2026-05-08T07:28:49Z</time></trkpt>
<trkpt lat="50.726122" lon="4.542332"><time>2026-05-08T07:38:49Z</time></trkpt>
</trkseg>
</trk>
<trk>
<name>brxrxi10</name>
<cmt>v</cmt>
<desc>Rixensart Sentier n°i10 Sentier du Martin Pêcheur</desc>
<link href="https://chemins.be/rixensart/sentier/i10"/><trkseg>
<trkpt lat="50.725799" lon="4.529825"><time>2026-05-08T07:08:49Z</time></trkpt>
<trkpt lat="50.726241" lon="4.528198"><time>2026-05-08T07:18:49Z</time></trkpt>
<trkpt lat="50.726404" lon="4.527589"><time>2026-05-08T07:28:49Z</time></trkpt>
<trkpt lat="50.726360" lon="4.527122"><time>2026-05-08T07:38:49Z</time></trkpt>
<trkpt lat="50.726181" lon="4.526526"><time>2026-05-08T07:48:49Z</time></trkpt>
<trkpt lat="50.725957" lon="4.525959"><time>2026-05-08T07:58:49Z</time></trkpt>
</trkseg>
</trk>
<trk>
<name>brxrxi11</name>
<cmt>v</cmt>
<desc>Rixensart Sentier n°i11 Sentier du Pas de Calais</desc>
<link href="https://chemins.be/rixensart/sentier/i11"/><trkseg>
<trkpt lat="50.705327" lon="4.531425"><time>2026-05-08T07:08:49Z</time></trkpt>
<trkpt lat="50.704948" lon="4.531849"><time>2026-05-08T07:18:49Z</time></trkpt>
<trkpt lat="50.704930" lon="4.531919"><time>2026-05-08T07:28:49Z</time></trkpt>
<trkpt lat="50.705001" lon="4.532500"><time>2026-05-08T07:38:49Z</time></trkpt>
<trkpt lat="50.704893" lon="4.533137"><time>2026-05-08T07:48:49Z</time></trkpt>
</trkseg>
</trk>
<trk>
<name>brxrxi12</name>
<cmt>v</cmt>
<desc>Rixensart Sentier n°i12 Sentier des Muguets / Sentier des Coquelicots</desc>
<link href="https://chemins.be/rixensart/sentier/i12"/><trkseg>
<trkpt lat="50.705563" lon="4.547678"><time>2026-05-08T07:08:49Z</time></trkpt>
<trkpt lat="50.705448" lon="4.547026"><time>2026-05-08T07:18:49Z</time></trkpt>
<trkpt lat="50.705053" lon="4.546657"><time>2026-05-08T07:28:49Z</time></trkpt>
<trkpt lat="50.705215" lon="4.546289"><time>2026-05-08T07:38:49Z</time></trkpt>
<trkpt lat="50.704722" lon="4.545311"><time>2026-05-08T07:48:49Z</time></trkpt>
</trkseg>
</trk>
<trk>
<name>brxrxi13</name>
<cmt>v</cmt>
<desc>Rixensart Sentier n°i13 Sentier de la Belle Province</desc>
<link href="https://chemins.be/rixensart/sentier/i13"/><trkseg>
<trkpt lat="50.703214" lon="4.537548"><time>2026-05-08T07:08:49Z</time></trkpt>
<trkpt lat="50.702928" lon="4.536867"><time>2026-05-08T07:18:49Z</time></trkpt>
<trkpt lat="50.702991" lon="4.536131"><time>2026-05-08T07:28:49Z</time></trkpt>
</trkseg>
</trk>
<trk>
<name>brxrxi14</name>
<cmt>v</cmt>
<desc>Rixensart Sentier n°i14 Sentier de Bradu</desc>
<link href="https://chemins.be/rixensart/sentier/i14"/><trkseg>
<trkpt lat="50.699594" lon="4.529084"><time>2026-05-08T07:08:49Z</time></trkpt>
<trkpt lat="50.699809" lon="4.529934"><time>2026-05-08T07:18:49Z</time></trkpt>
<trkpt lat="50.699826" lon="4.530401"><time>2026-05-08T07:28:49Z</time></trkpt>
<trkpt lat="50.699844" lon="4.530529"><time>2026-05-08T07:38:49Z</time></trkpt>
<trkpt lat="50.699880" lon="4.530614"><time>2026-05-08T07:48:49Z</time></trkpt>
</trkseg>
</trk>
<trk>
<name>brxrxi15</name>
<cmt>v</cmt>
<desc>Rixensart Chemin n°i15 </desc>
<link href="https://chemins.be/rixensart/chemin/i15"/><trkseg>
<trkpt lat="50.703988" lon="4.543269"><time>2026-05-08T07:08:49Z</time></trkpt>
<trkpt lat="50.703458" lon="4.543197"><time>2026-05-08T07:18:49Z</time></trkpt>
<trkpt lat="50.703233" lon="4.543309"><time>2026-05-08T07:28:49Z</time></trkpt>
</trkseg>
</trk>
<trk>
<name>brxrxi16</name>
<cmt>v</cmt>
<desc>Rixensart Sentier n°i16 Drève des Hêtres / Sentier de la Vierge</desc>
<link href="https://chemins.be/rixensart/sentier/i16"/><trkseg>
<trkpt lat="50.712018" lon="4.541926"><time>2026-05-08T07:08:49Z</time></trkpt>
<trkpt lat="50.712386" lon="4.542083"><time>2026-05-08T07:18:49Z</time></trkpt>
<trkpt lat="50.712808" lon="4.542311"><time>2026-05-08T07:28:49Z</time></trkpt>
<trkpt lat="50.713293" lon="4.542582"><time>2026-05-08T07:38:49Z</time></trkpt>
</trkseg>
</trk>
<trk>
<name>brxrxi17</name>
<cmt>v</cmt>
<desc>Rixensart Sentier n°i17 Sentier de la Vierge</desc>
<link href="https://chemins.be/rixensart/sentier/i17"/><trkseg>
<trkpt lat="50.713359" lon="4.540501"><time>2026-05-08T07:08:49Z</time></trkpt>
<trkpt lat="50.713484" lon="4.541238"><time>2026-05-08T07:18:49Z</time></trkpt>
<trkpt lat="50.713466" lon="4.541337"><time>2026-05-08T07:28:49Z</time></trkpt>
<trkpt lat="50.713340" lon="4.541407"><time>2026-05-08T07:38:49Z</time></trkpt>
<trkpt lat="50.713223" lon="4.541491"><time>2026-05-08T07:48:49Z</time></trkpt>
<trkpt lat="50.712835" lon="4.542198"><time>2026-05-08T07:58:49Z</time></trkpt>
<trkpt lat="50.712817" lon="4.542311"><time>2026-05-08T08:08:49Z</time></trkpt>
<trkpt lat="50.712771" lon="4.543047"><time>2026-05-08T08:18:49Z</time></trkpt>
<trkpt lat="50.712743" lon="4.543826"><time>2026-05-08T08:28:49Z</time></trkpt>
<trkpt lat="50.712716" lon="4.544052"><time>2026-05-08T08:38:49Z</time></trkpt>
<trkpt lat="50.712751" lon="4.544449"><time>2026-05-08T08:48:49Z</time></trkpt>
<trkpt lat="50.712814" lon="4.544562"><time>2026-05-08T08:58:49Z</time></trkpt>
</trkseg>
</trk>
<trk>
<name>brxrxi18</name>
<cmt>v</cmt>
<desc>Rixensart Chemin n°i18 Sentier de Ruhondo</desc>
<link href="https://chemins.be/rixensart/chemin/i18"/><trkseg>
<trkpt lat="50.700684" lon="4.534311"><time>2026-05-08T07:08:49Z</time></trkpt>
<trkpt lat="50.699811" lon="4.534265"><time>2026-05-08T07:18:49Z</time></trkpt>
</trkseg>
</trk>
<trk>
<name>brxrxi19</name>
<cmt>v</cmt>
<desc>Rixensart Sentier n°i19 Sentier du Val du Heron / Sentier Passische</desc>
<link href="https://chemins.be/rixensart/sentier/i19"/><trkseg>
<trkpt lat="50.710151" lon="4.506240"><time>2026-05-08T07:08:49Z</time></trkpt>
<trkpt lat="50.710933" lon="4.505917"><time>2026-05-08T07:18:49Z</time></trkpt>
<trkpt lat="50.711050" lon="4.505776"><time>2026-05-08T07:28:49Z</time></trkpt>
</trkseg>
</trk>
<trk>
<name>brxrxi2</name>
<cmt>v</cmt>
<desc>Rixensart Chemin n°i2 </desc>
<link href="https://chemins.be/rixensart/chemin/i2"/><trkseg>
<trkpt lat="50.725894" lon="4.547449"><time>2026-05-08T07:08:49Z</time></trkpt>
<trkpt lat="50.725337" lon="4.545578"><time>2026-05-08T07:18:49Z</time></trkpt>
<trkpt lat="50.724310" lon="4.544647"><time>2026-05-08T07:28:49Z</time></trkpt>
</trkseg>
</trk>
<trk>
<name>brxrxi20</name>
<cmt>v</cmt>
<desc>Rixensart Sentier n°i20 Sentier Cortil Jérome</desc>
<link href="https://chemins.be/rixensart/sentier/i20"/><trkseg>
<trkpt lat="50.719080" lon="4.531983"><time>2026-05-08T07:08:49Z</time></trkpt>
<trkpt lat="50.719126" lon="4.531190"><time>2026-05-08T07:18:49Z</time></trkpt>
<trkpt lat="50.719066" lon="4.529604"><time>2026-05-08T07:28:49Z</time></trkpt>
</trkseg>
</trk>
<trk>
<name>brxrxi21</name>
<cmt>v</cmt>
<desc>Rixensart Chemin n°i21 Chemin de la Source</desc>
<link href="https://chemins.be/rixensart/chemin/i21"/><trkseg>
<trkpt lat="50.722838" lon="4.525594"><time>2026-05-08T07:08:49Z</time></trkpt>
<trkpt lat="50.723045" lon="4.525142"><time>2026-05-08T07:18:49Z</time></trkpt>
<trkpt lat="50.723028" lon="4.524448"><time>2026-05-08T07:28:49Z</time></trkpt>
<trkpt lat="50.722223" lon="4.521301"><time>2026-05-08T07:38:49Z</time></trkpt>
<trkpt lat="50.722251" lon="4.520692"><time>2026-05-08T07:48:49Z</time></trkpt>
<trkpt lat="50.722395" lon="4.520296"><time>2026-05-08T07:58:49Z</time></trkpt>
<trkpt lat="50.722864" lon="4.519533"><time>2026-05-08T08:08:49Z</time></trkpt>
</trkseg>
</trk>
<trk>
<name>brxrxi22</name>
<cmt>v</cmt>
<desc>Rixensart Sentier n°i22 Sentier des Chevreuils</desc>
<link href="https://chemins.be/rixensart/sentier/i22"/><trkseg>
<trkpt lat="50.713144" lon="4.546249"><time>2026-05-08T07:08:49Z</time></trkpt>
<trkpt lat="50.713558" lon="4.546222"><time>2026-05-08T07:18:49Z</time></trkpt>
<trkpt lat="50.713657" lon="4.546137"><time>2026-05-08T07:28:49Z</time></trkpt>
<trkpt lat="50.714070" lon="4.546309"><time>2026-05-08T07:38:49Z</time></trkpt>
</trkseg>
</trk>
<trk>
<name>brxrxi23</name>
<cmt>s</cmt>
<desc>Rixensart Sentier n°i23 </desc>
<link href="https://chemins.be/rixensart/sentier/i23"/><trkseg>
<trkpt lat="50.715070" lon="4.537907"><time>2026-05-08T07:08:49Z</time></trkpt>
<trkpt lat="50.715076" lon="4.538164"><time>2026-05-08T07:18:49Z</time></trkpt>
<trkpt lat="50.715445" lon="4.538364"><time>2026-05-08T07:28:49Z</time></trkpt>
<trkpt lat="50.715373" lon="4.539469"><time>2026-05-08T07:38:49Z</time></trkpt>
<trkpt lat="50.714912" lon="4.546672"><time>2026-05-08T07:48:49Z</time></trkpt>
<trkpt lat="50.716873" lon="4.547585"><time>2026-05-08T07:58:49Z</time></trkpt>
<trkpt lat="50.717259" lon="4.548424"><time>2026-05-08T08:08:49Z</time></trkpt>
<trkpt lat="50.718124" lon="4.549522"><time>2026-05-08T08:18:49Z</time></trkpt>
<trkpt lat="50.718672" lon="4.550217"><time>2026-05-08T08:28:49Z</time></trkpt>
<trkpt lat="50.719228" lon="4.550427"><time>2026-05-08T08:38:49Z</time></trkpt>
<trkpt lat="50.719397" lon="4.550923"><time>2026-05-08T08:48:49Z</time></trkpt>
</trkseg>
</trk>
<trk>
<name>brxrxi24</name>
<cmt>v</cmt>
<desc>Rixensart Sentier n°i24 </desc>
<link href="https://chemins.be/rixensart/sentier/i24"/><trkseg>
<trkpt lat="50.708647" lon="4.535830"><time>2026-05-08T07:08:49Z</time></trkpt>
<trkpt lat="50.708496" lon="4.535391"><time>2026-05-08T07:18:49Z</time></trkpt>
</trkseg>
</trk>
<trk>
<name>brxrxi25</name>
<cmt>s</cmt>
<desc>Rixensart Sentier n°i25 </desc>
<link href="https://chemins.be/rixensart/sentier/i25"/><trkseg>
<trkpt lat="50.714908" lon="4.546600"><time>2026-05-08T07:08:49Z</time></trkpt>
<trkpt lat="50.714826" lon="4.547206"><time>2026-05-08T07:18:49Z</time></trkpt>
<trkpt lat="50.714840" lon="4.547431"><time>2026-05-08T07:28:49Z</time></trkpt>
<trkpt lat="50.714885" lon="4.547609"><time>2026-05-08T07:38:49Z</time></trkpt>
<trkpt lat="50.714894" lon="4.547789"><time>2026-05-08T07:48:49Z</time></trkpt>
<trkpt lat="50.714973" lon="4.548349"><time>2026-05-08T07:58:49Z</time></trkpt>
<trkpt lat="50.714987" lon="4.548516"><time>2026-05-08T08:08:49Z</time></trkpt>
<trkpt lat="50.714981" lon="4.549041"><time>2026-05-08T08:18:49Z</time></trkpt>
<trkpt lat="50.715018" lon="4.549221"><time>2026-05-08T08:28:49Z</time></trkpt>
<trkpt lat="50.715148" lon="4.549516"><time>2026-05-08T08:38:49Z</time></trkpt>
<trkpt lat="50.715279" lon="4.550007"><time>2026-05-08T08:48:49Z</time></trkpt>
<trkpt lat="50.715375" lon="4.550223"><time>2026-05-08T08:58:49Z</time></trkpt>
<trkpt lat="50.715477" lon="4.550681"><time>2026-05-08T09:08:49Z</time></trkpt>
</trkseg>
</trk>
<trk>
<name>brxrxi26</name>
<cmt>v</cmt>
<desc>Rixensart Chemin n°i26 </desc>
<link href="https://chemins.be/rixensart/chemin/i26"/><trkseg>
<trkpt lat="50.725857" lon="4.528018"><time>2026-05-08T07:08:49Z</time></trkpt>
<trkpt lat="50.726248" lon="4.528207"><time>2026-05-08T07:18:49Z</time></trkpt>
</trkseg>
</trk>
<trk>
<name>brxrxi27</name>
<cmt>v</cmt>
<desc>Rixensart Sentier n°i27 </desc>
<link href="https://chemins.be/rixensart/sentier/i27"/><trkseg>
<trkpt lat="50.715452" lon="4.527663"><time>2026-05-08T07:08:49Z</time></trkpt>
<trkpt lat="50.715753" lon="4.527882"><time>2026-05-08T07:18:49Z</time></trkpt>
</trkseg>
</trk>
<trk>
<name>brxrxi28</name>
<cmt>s</cmt>
<desc>Rixensart Sentier n°i28 </desc>
<link href="https://chemins.be/rixensart/sentier/i28"/><trkseg>
<trkpt lat="50.726655" lon="4.541213"><time>2026-05-08T07:08:49Z</time></trkpt>
<trkpt lat="50.726571" lon="4.541410"><time>2026-05-08T07:18:49Z</time></trkpt>
<trkpt lat="50.726095" lon="4.542346"><time>2026-05-08T07:28:49Z</time></trkpt>
<trkpt lat="50.725460" lon="4.543597"><time>2026-05-08T07:38:49Z</time></trkpt>
<trkpt lat="50.724276" lon="4.544690"><time>2026-05-08T07:48:49Z</time></trkpt>
<trkpt lat="50.724024" lon="4.544845"><time>2026-05-08T07:58:49Z</time></trkpt>
<trkpt lat="50.723270" lon="4.545683"><time>2026-05-08T08:08:49Z</time></trkpt>
<trkpt lat="50.723094" lon="4.545867"><time>2026-05-08T08:18:49Z</time></trkpt>
<trkpt lat="50.722152" lon="4.545872"><time>2026-05-08T08:28:49Z</time></trkpt>
<trkpt lat="50.721265" lon="4.546060"><time>2026-05-08T08:38:49Z</time></trkpt>
<trkpt lat="50.720714" lon="4.546249"><time>2026-05-08T08:48:49Z</time></trkpt>
<trkpt lat="50.718113" lon="4.549519"><time>2026-05-08T08:58:49Z</time></trkpt>
<trkpt lat="50.717429" lon="4.550519"><time>2026-05-08T09:08:49Z</time></trkpt>
</trkseg>
</trk>
<trk>
<name>brxrxi29</name>
<cmt>v</cmt>
<desc>Rixensart Sentier n°i29 Sentier du Champ</desc>
<link href="https://chemins.be/rixensart/sentier/i29"/><trkseg>
<trkpt lat="50.703901" lon="4.510547"><time>2026-05-08T07:08:49Z</time></trkpt>
<trkpt lat="50.704195" lon="4.510304"><time>2026-05-08T07:18:49Z</time></trkpt>
<trkpt lat="50.704476" lon="4.510490"><time>2026-05-08T07:28:49Z</time></trkpt>
<trkpt lat="50.704612" lon="4.510083"><time>2026-05-08T07:38:49Z</time></trkpt>
<trkpt lat="50.704870" lon="4.510362"><time>2026-05-08T07:48:49Z</time></trkpt>
</trkseg>
</trk>
<trk>
<name>brxrxi3</name>
<cmt>v</cmt>
<desc>Rixensart Sentier n°i3 </desc>
<link href="https://chemins.be/rixensart/sentier/i3"/><trkseg>
<trkpt lat="50.702114" lon="4.513082"><time>2026-05-08T07:08:49Z</time></trkpt>
<trkpt lat="50.703533" lon="4.514686"><time>2026-05-08T07:18:49Z</time></trkpt>
</trkseg>
</trk>
<trk>
<name>brxrxi30</name>
<cmt>v</cmt>
<desc>Rixensart Sentier n°i30 </desc>
<link href="https://chemins.be/rixensart/sentier/i30"/><trkseg>
<trkpt lat="50.710857" lon="4.502933"><time>2026-05-08T07:08:49Z</time></trkpt>
<trkpt lat="50.709926" lon="4.501853"><time>2026-05-08T07:18:49Z</time></trkpt>
<trkpt lat="50.709270" lon="4.501252"><time>2026-05-08T07:28:49Z</time></trkpt>
<trkpt lat="50.706508" lon="4.500483"><time>2026-05-08T07:38:49Z</time></trkpt>
<trkpt lat="50.706189" lon="4.500377"><time>2026-05-08T07:48:49Z</time></trkpt>
<trkpt lat="50.705733" lon="4.500212"><time>2026-05-08T07:58:49Z</time></trkpt>
<trkpt lat="50.705343" lon="4.500079"><time>2026-05-08T08:08:49Z</time></trkpt>
</trkseg>
</trk>
<trk>
<name>brxrxi31</name>
<cmt>v</cmt>
<desc>Rixensart Chemin n°i31 </desc>
<link href="https://chemins.be/rixensart/chemin/i31"/><trkseg>
<trkpt lat="50.708266" lon="4.514947"><time>2026-05-08T07:08:49Z</time></trkpt>
<trkpt lat="50.708435" lon="4.514788"><time>2026-05-08T07:18:49Z</time></trkpt>
</trkseg>
</trk>
<trk>
<name>brxrxi32</name>
<cmt>v</cmt>
<desc>Rixensart Sentier n°i32 </desc>
<link href="https://chemins.be/rixensart/sentier/i32"/><trkseg>
<trkpt lat="50.707975" lon="4.513606"><time>2026-05-08T07:08:49Z</time></trkpt>
<trkpt lat="50.708078" lon="4.513621"><time>2026-05-08T07:18:49Z</time></trkpt>
</trkseg>
</trk>
<trk>
<name>brxrxi33</name>
<cmt>v</cmt>
<desc>Rixensart Sentier n°i33 </desc>
<link href="https://chemins.be/rixensart/sentier/i33"/><trkseg>
<trkpt lat="50.714506" lon="4.522127"><time>2026-05-08T07:08:49Z</time></trkpt>
<trkpt lat="50.714262" lon="4.522861"><time>2026-05-08T07:18:49Z</time></trkpt>
</trkseg>
</trk>
<trk>
<name>brxrxi34</name>
<cmt>v</cmt>
<desc>Rixensart Sentier n°i34 </desc>
<link href="https://chemins.be/rixensart/sentier/i34"/><trkseg>
<trkpt lat="50.714364" lon="4.521820"><time>2026-05-08T07:08:49Z</time></trkpt>
<trkpt lat="50.714109" lon="4.522038"><time>2026-05-08T07:18:49Z</time></trkpt>
<trkpt lat="50.713981" lon="4.522070"><time>2026-05-08T07:28:49Z</time></trkpt>
</trkseg>
</trk>
<trk>
<name>brxrxi35</name>
<cmt>v</cmt>
<desc>Rixensart Sentier n°i35 </desc>
<link href="https://chemins.be/rixensart/sentier/i35"/><trkseg>
<trkpt lat="50.713317" lon="4.519964"><time>2026-05-08T07:08:49Z</time></trkpt>
<trkpt lat="50.713100" lon="4.520254"><time>2026-05-08T07:18:49Z</time></trkpt>
<trkpt lat="50.712973" lon="4.521359"><time>2026-05-08T07:28:49Z</time></trkpt>
</trkseg>
</trk>
<trk>
<name>brxrxi36</name>
<cmt>v</cmt>
<desc>Rixensart Sentier n°i36 Sentier du Carpu</desc>
<link href="https://chemins.be/rixensart/sentier/i36"/><trkseg>
<trkpt lat="50.715651" lon="4.510551"><time>2026-05-08T07:08:49Z</time></trkpt>
<trkpt lat="50.715765" lon="4.510668"><time>2026-05-08T07:18:49Z</time></trkpt>
<trkpt lat="50.715764" lon="4.510829"><time>2026-05-08T07:28:49Z</time></trkpt>
<trkpt lat="50.715854" lon="4.510957"><time>2026-05-08T07:38:49Z</time></trkpt>
<trkpt lat="50.715794" lon="4.511275"><time>2026-05-08T07:48:49Z</time></trkpt>
<trkpt lat="50.716316" lon="4.511757"><time>2026-05-08T07:58:49Z</time></trkpt>
<trkpt lat="50.716627" lon="4.512173"><time>2026-05-08T08:08:49Z</time></trkpt>
<trkpt lat="50.716752" lon="4.512621"><time>2026-05-08T08:18:49Z</time></trkpt>
<trkpt lat="50.716713" lon="4.512881"><time>2026-05-08T08:28:49Z</time></trkpt>
<trkpt lat="50.716477" lon="4.513326"><time>2026-05-08T08:38:49Z</time></trkpt>
<trkpt lat="50.716463" lon="4.513589"><time>2026-05-08T08:48:49Z</time></trkpt>
</trkseg>
</trk>
<trk>
<name>brxrxi37</name>
<cmt>v</cmt>
<desc>Rixensart Sentier n°i37 </desc>
<link href="https://chemins.be/rixensart/sentier/i37"/><trkseg>
<trkpt lat="50.717253" lon="4.509358"><time>2026-05-08T07:08:49Z</time></trkpt>
<trkpt lat="50.717417" lon="4.510467"><time>2026-05-08T07:18:49Z</time></trkpt>
<trkpt lat="50.717696" lon="4.510920"><time>2026-05-08T07:28:49Z</time></trkpt>
<trkpt lat="50.718426" lon="4.511198"><time>2026-05-08T07:38:49Z</time></trkpt>
<trkpt lat="50.718605" lon="4.511520"><time>2026-05-08T07:48:49Z</time></trkpt>
<trkpt lat="50.719180" lon="4.512445"><time>2026-05-08T07:58:49Z</time></trkpt>
<trkpt lat="50.719850" lon="4.512906"><time>2026-05-08T08:08:49Z</time></trkpt>
<trkpt lat="50.720214" lon="4.513188"><time>2026-05-08T08:18:49Z</time></trkpt>
</trkseg>
</trk>
<trk>
<name>brxrxi38</name>
<cmt>v</cmt>
<desc>Rixensart Chemin n°i38 </desc>
<link href="https://chemins.be/rixensart/chemin/i38"/><trkseg>
<trkpt lat="50.715598" lon="4.509931"><time>2026-05-08T07:08:49Z</time></trkpt>
<trkpt lat="50.716047" lon="4.509630"><time>2026-05-08T07:18:49Z</time></trkpt>
<trkpt lat="50.716971" lon="4.509877"><time>2026-05-08T07:28:49Z</time></trkpt>
<trkpt lat="50.717248" lon="4.509370"><time>2026-05-08T07:38:49Z</time></trkpt>
</trkseg>
</trk>
<trk>
<name>brxrxi39</name>
<cmt>v</cmt>
<desc>Rixensart Sentier n°i39 </desc>
<link href="https://chemins.be/rixensart/sentier/i39"/><trkseg>
<trkpt lat="50.716731" lon="4.512881"><time>2026-05-08T07:08:49Z</time></trkpt>
<trkpt lat="50.716457" lon="4.512985"><time>2026-05-08T07:18:49Z</time></trkpt>
<trkpt lat="50.716124" lon="4.512695"><time>2026-05-08T07:28:49Z</time></trkpt>
<trkpt lat="50.715619" lon="4.512709"><time>2026-05-08T07:38:49Z</time></trkpt>
<trkpt lat="50.714908" lon="4.513020"><time>2026-05-08T07:48:49Z</time></trkpt>
<trkpt lat="50.714618" lon="4.513485"><time>2026-05-08T07:58:49Z</time></trkpt>
</trkseg>
</trk>
<trk>
<name>brxrxi4</name>
<cmt>v</cmt>
<desc>Rixensart Sentier n°i4 </desc>
<link href="https://chemins.be/rixensart/sentier/i4"/><trkseg>
<trkpt lat="50.714798" lon="4.533936"><time>2026-05-08T07:08:49Z</time></trkpt>
<trkpt lat="50.712921" lon="4.532712"><time>2026-05-08T07:18:49Z</time></trkpt>
</trkseg>
</trk>
<trk>
<name>brxrxi40</name>
<cmt>v</cmt>
<desc>Rixensart Sentier n°i40 </desc>
<link href="https://chemins.be/rixensart/sentier/i40"/><trkseg>
<trkpt lat="50.704864" lon="4.537297"><time>2026-05-08T07:08:49Z</time></trkpt>
<trkpt lat="50.704393" lon="4.536267"><time>2026-05-08T07:18:49Z</time></trkpt>
</trkseg>
</trk>
<trk>
<name>brxrxi41</name>
<cmt>v</cmt>
<desc>Rixensart Sentier n°i41 </desc>
<link href="https://chemins.be/rixensart/sentier/i41"/><trkseg>
<trkpt lat="50.704470" lon="4.545530"><time>2026-05-08T07:08:49Z</time></trkpt>
<trkpt lat="50.704449" lon="4.545750"><time>2026-05-08T07:18:49Z</time></trkpt>
</trkseg>
</trk>
<trk>
<name>brxrxi42</name>
<cmt>v</cmt>
<desc>Rixensart Sentier n°i42 </desc>
<link href="https://chemins.be/rixensart/sentier/i42"/><trkseg>
<trkpt lat="50.706808" lon="4.509075"><time>2026-05-08T07:08:49Z</time></trkpt>
<trkpt lat="50.707039" lon="4.508850"><time>2026-05-08T07:18:49Z</time></trkpt>
<trkpt lat="50.707225" lon="4.508367"><time>2026-05-08T07:28:49Z</time></trkpt>
</trkseg>
</trk>
<trk>
<name>brxrxi43</name>
<cmt>v</cmt>
<desc>Rixensart Sentier n°i43 </desc>
<link href="https://chemins.be/rixensart/sentier/i43"/><trkseg>
<trkpt lat="50.719193" lon="4.512463"><time>2026-05-08T07:08:49Z</time></trkpt>
<trkpt lat="50.718867" lon="4.512677"><time>2026-05-08T07:18:49Z</time></trkpt>
<trkpt lat="50.718387" lon="4.512005"><time>2026-05-08T07:28:49Z</time></trkpt>
<trkpt lat="50.718622" lon="4.511604"><time>2026-05-08T07:38:49Z</time></trkpt>
</trkseg>
</trk>
<trk>
<name>brxrxi44</name>
<cmt>v</cmt>
<desc>Rixensart Sentier n°i44 </desc>
<link href="https://chemins.be/rixensart/sentier/i44"/><trkseg>
<trkpt lat="50.719360" lon="4.512992"><time>2026-05-08T07:08:49Z</time></trkpt>
<trkpt lat="50.719075" lon="4.512548"><time>2026-05-08T07:18:49Z</time></trkpt>
</trkseg>
</trk>
<trk>
<name>brxrxi45</name>
<cmt>s</cmt>
<desc>Rixensart Sentier n°i45 </desc>
<link href="https://chemins.be/rixensart/sentier/i45"/><trkseg>
<trkpt lat="50.723210" lon="4.545653"><time>2026-05-08T07:08:49Z</time></trkpt>
<trkpt lat="50.722928" lon="4.545087"><time>2026-05-08T07:18:49Z</time></trkpt>
<trkpt lat="50.721950" lon="4.545138"><time>2026-05-08T07:28:49Z</time></trkpt>
<trkpt lat="50.721309" lon="4.544417"><time>2026-05-08T07:38:49Z</time></trkpt>
<trkpt lat="50.721265" lon="4.544074"><time>2026-05-08T07:48:49Z</time></trkpt>
<trkpt lat="50.720743" lon="4.544074"><time>2026-05-08T07:58:49Z</time></trkpt>
<trkpt lat="50.719325" lon="4.545638"><time>2026-05-08T08:08:49Z</time></trkpt>
<trkpt lat="50.718757" lon="4.544956"><time>2026-05-08T08:18:49Z</time></trkpt>
<trkpt lat="50.718170" lon="4.545548"><time>2026-05-08T08:28:49Z</time></trkpt>
</trkseg>
</trk>
<trk>
<name>brxrxi46</name>
<cmt>s</cmt>
<desc>Rixensart Sentier n°i46 </desc>
<link href="https://chemins.be/rixensart/sentier/i46"/><trkseg>
<trkpt lat="50.720341" lon="4.541091"><time>2026-05-08T07:08:49Z</time></trkpt>
<trkpt lat="50.720162" lon="4.542267"><time>2026-05-08T07:18:49Z</time></trkpt>
<trkpt lat="50.721558" lon="4.546979"><time>2026-05-08T07:28:49Z</time></trkpt>
<trkpt lat="50.721107" lon="4.547872"><time>2026-05-08T07:38:49Z</time></trkpt>
<trkpt lat="50.721210" lon="4.548584"><time>2026-05-08T07:48:49Z</time></trkpt>
<trkpt lat="50.721205" lon="4.549726"><time>2026-05-08T07:58:49Z</time></trkpt>
<trkpt lat="50.721634" lon="4.550473"><time>2026-05-08T08:08:49Z</time></trkpt>
<trkpt lat="50.721645" lon="4.550842"><time>2026-05-08T08:18:49Z</time></trkpt>
</trkseg>
</trk>
<trk>
<name>brxrxi47</name>
<cmt>s</cmt>
<desc>Rixensart Sentier n°i47 </desc>
<link href="https://chemins.be/rixensart/sentier/i47"/><trkseg>
<trkpt lat="50.714112" lon="4.546129"><time>2026-05-08T07:08:49Z</time></trkpt>
<trkpt lat="50.714583" lon="4.546239"><time>2026-05-08T07:18:49Z</time></trkpt>
<trkpt lat="50.714947" lon="4.546136"><time>2026-05-08T07:28:49Z</time></trkpt>
<trkpt lat="50.716532" lon="4.545452"><time>2026-05-08T07:38:49Z</time></trkpt>
</trkseg>
</trk>
<trk>
<name>brxrxi48</name>
<cmt>v</cmt>
<desc>Rixensart Sentier n°i48 </desc>
<link href="https://chemins.be/rixensart/sentier/i48"/><trkseg>
<trkpt lat="50.712798" lon="4.544719"><time>2026-05-08T07:08:49Z</time></trkpt>
<trkpt lat="50.712498" lon="4.544742"><time>2026-05-08T07:18:49Z</time></trkpt>
</trkseg>
</trk>
<trk>
<name>brxrxi5</name>
<cmt>v</cmt>
<desc>Rixensart Sentier n°i5 Sentier de Trelon</desc>
<link href="https://chemins.be/rixensart/sentier/i5"/><trkseg>
<trkpt lat="50.697696" lon="4.530082"><time>2026-05-08T07:08:49Z</time></trkpt>
<trkpt lat="50.697821" lon="4.530607"><time>2026-05-08T07:18:49Z</time></trkpt>
<trkpt lat="50.697955" lon="4.531117"><time>2026-05-08T07:28:49Z</time></trkpt>
<trkpt lat="50.698027" lon="4.531301"><time>2026-05-08T07:38:49Z</time></trkpt>
<trkpt lat="50.698081" lon="4.531428"><time>2026-05-08T07:48:49Z</time></trkpt>
<trkpt lat="50.698161" lon="4.531584"><time>2026-05-08T07:58:49Z</time></trkpt>
<trkpt lat="50.698269" lon="4.531698"><time>2026-05-08T08:08:49Z</time></trkpt>
<trkpt lat="50.698395" lon="4.531826"><time>2026-05-08T08:18:49Z</time></trkpt>
<trkpt lat="50.698512" lon="4.531911"><time>2026-05-08T08:28:49Z</time></trkpt>
<trkpt lat="50.698682" lon="4.531997"><time>2026-05-08T08:38:49Z</time></trkpt>
<trkpt lat="50.699293" lon="4.532126"><time>2026-05-08T08:48:49Z</time></trkpt>
</trkseg>
</trk>
<trk>
<name>brxrxi6</name>
<cmt>v</cmt>
<desc>Rixensart Sentier n°i6 Promenade de Birstall</desc>
<link href="https://chemins.be/rixensart/sentier/i6"/><trkseg>
<trkpt lat="50.702436" lon="4.534699"><time>2026-05-08T07:08:49Z</time></trkpt>
<trkpt lat="50.701581" lon="4.535461"><time>2026-05-08T07:18:49Z</time></trkpt>
<trkpt lat="50.701149" lon="4.535813"><time>2026-05-08T07:28:49Z</time></trkpt>
<trkpt lat="50.700825" lon="4.536067"><time>2026-05-08T07:38:49Z</time></trkpt>
<trkpt lat="50.700726" lon="4.536123"><time>2026-05-08T07:48:49Z</time></trkpt>
</trkseg>
</trk>
<trk>
<name>brxrxi7</name>
<cmt>v</cmt>
<desc>Rixensart Sentier n°i7 Sentier du Pélerin</desc>
<link href="https://chemins.be/rixensart/sentier/i7"/><trkseg>
<trkpt lat="50.705484" lon="4.540967"><time>2026-05-08T07:08:49Z</time></trkpt>
<trkpt lat="50.705439" lon="4.540670"><time>2026-05-08T07:18:49Z</time></trkpt>
<trkpt lat="50.706015" lon="4.539978"><time>2026-05-08T07:28:49Z</time></trkpt>
<trkpt lat="50.706925" lon="4.538906"><time>2026-05-08T07:38:49Z</time></trkpt>
<trkpt lat="50.707366" lon="4.538355"><time>2026-05-08T07:48:49Z</time></trkpt>
<trkpt lat="50.707799" lon="4.537861"><time>2026-05-08T07:58:49Z</time></trkpt>
<trkpt lat="50.708519" lon="4.536986"><time>2026-05-08T08:08:49Z</time></trkpt>
<trkpt lat="50.709347" lon="4.536026"><time>2026-05-08T08:18:49Z</time></trkpt>
<trkpt lat="50.709383" lon="4.536041"><time>2026-05-08T08:28:49Z</time></trkpt>
</trkseg>
</trk>
<trk>
<name>brxrxi8</name>
<cmt>r</cmt>
<desc>Rixensart Sentier n°i8 Sentier du Rossignol / Sentier des Rossignols</desc>
<link href="https://chemins.be/rixensart/sentier/i8"/><trkseg>
<trkpt lat="50.713743" lon="4.530130"><time>2026-05-08T07:08:49Z</time></trkpt>
<trkpt lat="50.714338" lon="4.529542"><time>2026-05-08T07:18:49Z</time></trkpt>
</trkseg></trk>
<trk>
<name>brxrxi8</name>
<cmt>v</cmt>
<desc>Rixensart Sentier n°i8 Sentier du Rossignol / Sentier des Rossignols</desc>
<link href="https://chemins.be/rixensart/sentier/i8"/><trkseg>
<trkpt lat="50.714338" lon="4.529542"><time>2026-05-08T07:18:49Z</time></trkpt>
<trkpt lat="50.714445" lon="4.529418"><time>2026-05-08T07:28:49Z</time></trkpt>
<trkpt lat="50.714598" lon="4.529234"><time>2026-05-08T07:38:49Z</time></trkpt>
<trkpt lat="50.714778" lon="4.528994"><time>2026-05-08T07:48:49Z</time></trkpt>
<trkpt lat="50.715742" lon="4.527865"><time>2026-05-08T07:58:49Z</time></trkpt>
<trkpt lat="50.716093" lon="4.527342"><time>2026-05-08T08:08:49Z</time></trkpt>
<trkpt lat="50.716228" lon="4.527158"><time>2026-05-08T08:18:49Z</time></trkpt>
<trkpt lat="50.716363" lon="4.527003"><time>2026-05-08T08:28:49Z</time></trkpt>
<trkpt lat="50.716471" lon="4.526890"><time>2026-05-08T08:38:49Z</time></trkpt>
<trkpt lat="50.716786" lon="4.526580"><time>2026-05-08T08:48:49Z</time></trkpt>
<trkpt lat="50.717056" lon="4.526255"><time>2026-05-08T08:58:49Z</time></trkpt>
<trkpt lat="50.717146" lon="4.526114"><time>2026-05-08T09:08:49Z</time></trkpt>
<trkpt lat="50.717201" lon="4.526043"><time>2026-05-08T09:18:49Z</time></trkpt>
</trkseg>
</trk>
<trk>
<name>brxrxi9</name>
<cmt>v</cmt>
<desc>Rixensart Sentier n°i9 </desc>
<link href="https://chemins.be/rixensart/sentier/i9"/><trkseg>
<trkpt lat="50.716743" lon="4.518310"><time>2026-05-08T07:08:49Z</time></trkpt>
<trkpt lat="50.716671" lon="4.518239"><time>2026-05-08T07:18:49Z</time></trkpt>
<trkpt lat="50.716383" lon="4.518620"><time>2026-05-08T07:28:49Z</time></trkpt>
<trkpt lat="50.716096" lon="4.518180"><time>2026-05-08T07:38:49Z</time></trkpt>
<trkpt lat="50.716069" lon="4.518039"><time>2026-05-08T07:48:49Z</time></trkpt>
<trkpt lat="50.716080" lon="4.516594"><time>2026-05-08T07:58:49Z</time></trkpt>
</trkseg>
</trk>
<trk>
<name>brxrxLv917</name>
<cmt>s</cmt>
<desc>Rixensart Chemin n°Lv917 Avenue Georges Marchal / Sentier du Val du Heron / Chemin de la voie du Tram</desc>
<link href="https://chemins.be/rixensart/chemin/Lv917"/><trkseg>
<trkpt lat="50.713056" lon="4.532585"><time>2026-05-08T07:08:49Z</time></trkpt>
<trkpt lat="50.713093" lon="4.531679"><time>2026-05-08T07:18:49Z</time></trkpt>
<trkpt lat="50.713016" lon="4.530963"><time>2026-05-08T07:28:49Z</time></trkpt>
</trkseg></trk>
<trk>
<name>brxrxLv917</name>
<cmt>r</cmt>
<desc>Rixensart Chemin n°Lv917 Avenue Georges Marchal / Sentier du Val du Heron / Chemin de la voie du Tram</desc>
<link href="https://chemins.be/rixensart/chemin/Lv917"/><trkseg>
<trkpt lat="50.713016" lon="4.530963"><time>2026-05-08T07:28:49Z</time></trkpt>
<trkpt lat="50.712928" lon="4.530029"><time>2026-05-08T07:38:49Z</time></trkpt>
<trkpt lat="50.712722" lon="4.528760"><time>2026-05-08T07:48:49Z</time></trkpt>
<trkpt lat="50.712235" lon="4.527698"><time>2026-05-08T07:58:49Z</time></trkpt>
<trkpt lat="50.712076" lon="4.526422"><time>2026-05-08T08:08:49Z</time></trkpt>
<trkpt lat="50.711807" lon="4.525572"><time>2026-05-08T08:18:49Z</time></trkpt>
<trkpt lat="50.711719" lon="4.524524"><time>2026-05-08T08:28:49Z</time></trkpt>
<trkpt lat="50.711729" lon="4.523618"><time>2026-05-08T08:38:49Z</time></trkpt>
<trkpt lat="50.711792" lon="4.523193"><time>2026-05-08T08:48:49Z</time></trkpt>
<trkpt lat="50.711571" lon="4.520417"><time>2026-05-08T08:58:49Z</time></trkpt>
</trkseg></trk>
<trk>
<name>brxrxLv917</name>
<cmt>v</cmt>
<desc>Rixensart Chemin n°Lv917 Avenue Georges Marchal / Sentier du Val du Heron / Chemin de la voie du Tram</desc>
<link href="https://chemins.be/rixensart/chemin/Lv917"/><trkseg>
<trkpt lat="50.711571" lon="4.520417"><time>2026-05-08T08:58:49Z</time></trkpt>
<trkpt lat="50.711429" lon="4.519596"><time>2026-05-08T09:08:49Z</time></trkpt>
<trkpt lat="50.711330" lon="4.519255"><time>2026-05-08T09:18:49Z</time></trkpt>
<trkpt lat="50.711169" lon="4.518802"><time>2026-05-08T09:28:49Z</time></trkpt>
<trkpt lat="50.710775" lon="4.517880"><time>2026-05-08T09:38:49Z</time></trkpt>
<trkpt lat="50.710658" lon="4.517639"><time>2026-05-08T09:48:49Z</time></trkpt>
<trkpt lat="50.710183" lon="4.516845"><time>2026-05-08T09:58:49Z</time></trkpt>
<trkpt lat="50.709815" lon="4.516348"><time>2026-05-08T10:08:49Z</time></trkpt>
<trkpt lat="50.709572" lon="4.516036"><time>2026-05-08T10:18:49Z</time></trkpt>
<trkpt lat="50.708603" lon="4.514985"><time>2026-05-08T10:28:49Z</time></trkpt>
<trkpt lat="50.708440" lon="4.514791"><time>2026-05-08T10:38:49Z</time></trkpt>
<trkpt lat="50.708351" lon="4.514659"><time>2026-05-08T10:48:49Z</time></trkpt>
<trkpt lat="50.708208" lon="4.514361"><time>2026-05-08T10:58:49Z</time></trkpt>
<trkpt lat="50.708099" lon="4.513911"><time>2026-05-08T11:08:49Z</time></trkpt>
<trkpt lat="50.708078" lon="4.513621"><time>2026-05-08T11:18:49Z</time></trkpt>
<trkpt lat="50.708116" lon="4.513245"><time>2026-05-08T11:28:49Z</time></trkpt>
<trkpt lat="50.708387" lon="4.512121"><time>2026-05-08T11:38:49Z</time></trkpt>
</trkseg></trk>
<trk>
<name>brxrxLv917</name>
<cmt>r</cmt>
<desc>Rixensart Chemin n°Lv917 Avenue Georges Marchal / Sentier du Val du Heron / Chemin de la voie du Tram</desc>
<link href="https://chemins.be/rixensart/chemin/Lv917"/><trkseg>
<trkpt lat="50.708387" lon="4.512121"><time>2026-05-08T11:38:49Z</time></trkpt>
<trkpt lat="50.708444" lon="4.511608"><time>2026-05-08T11:48:49Z</time></trkpt>
<trkpt lat="50.708446" lon="4.511033"><time>2026-05-08T11:58:49Z</time></trkpt>
</trkseg></trk>
<trk>
<name>brxrxLv917</name>
<cmt>v</cmt>
<desc>Rixensart Chemin n°Lv917 Avenue Georges Marchal / Sentier du Val du Heron / Chemin de la voie du Tram</desc>
<link href="https://chemins.be/rixensart/chemin/Lv917"/><trkseg>
<trkpt lat="50.708446" lon="4.511033"><time>2026-05-08T11:58:49Z</time></trkpt>
<trkpt lat="50.708364" lon="4.510251"><time>2026-05-08T12:08:49Z</time></trkpt>
<trkpt lat="50.708213" lon="4.509696"><time>2026-05-08T12:18:49Z</time></trkpt>
<trkpt lat="50.708133" lon="4.509476"><time>2026-05-08T12:28:49Z</time></trkpt>
<trkpt lat="50.707594" lon="4.509008"><time>2026-05-08T12:38:49Z</time></trkpt>
<trkpt lat="50.707253" lon="4.508384"><time>2026-05-08T12:48:49Z</time></trkpt>
<trkpt lat="50.706787" lon="4.507335"><time>2026-05-08T12:58:49Z</time></trkpt>
<trkpt lat="50.706204" lon="4.505946"><time>2026-05-08T13:08:49Z</time></trkpt>
<trkpt lat="50.705908" lon="4.505562"><time>2026-05-08T13:18:49Z</time></trkpt>
<trkpt lat="50.705621" lon="4.505406"><time>2026-05-08T13:28:49Z</time></trkpt>
<trkpt lat="50.705135" lon="4.505235"><time>2026-05-08T13:38:49Z</time></trkpt>
<trkpt lat="50.704722" lon="4.505488"><time>2026-05-08T13:48:49Z</time></trkpt>
<trkpt lat="50.704110" lon="4.505755"><time>2026-05-08T13:58:49Z</time></trkpt>
<trkpt lat="50.703840" lon="4.505783"><time>2026-05-08T14:08:49Z</time></trkpt>
</trkseg>
</trk>
<trk>
<name>brxrxp1</name>
<cmt>r</cmt>
<desc>Rixensart Chemin particulier n°p1 Rue de la Ferme</desc>
<link href="https://chemins.be/rixensart/chemin/p1"/><trkseg>
<trkpt lat="50.709158" lon="4.535184"><time>2026-05-08T07:08:49Z</time></trkpt>
<trkpt lat="50.707829" lon="4.534650"><time>2026-05-08T07:18:49Z</time></trkpt>
<trkpt lat="50.707660" lon="4.534326"><time>2026-05-08T07:28:49Z</time></trkpt>
</trkseg></trk>
<trk>
<name>brxrxp1</name>
<cmt>v</cmt>
<desc>Rixensart Chemin particulier n°p1 Rue de la Ferme</desc>
<link href="https://chemins.be/rixensart/chemin/p1"/><trkseg>
<trkpt lat="50.707660" lon="4.534326"><time>2026-05-08T07:28:49Z</time></trkpt>
<trkpt lat="50.707441" lon="4.533651"><time>2026-05-08T07:38:49Z</time></trkpt>
<trkpt lat="50.707171" lon="4.533124"><time>2026-05-08T07:48:49Z</time></trkpt>
<trkpt lat="50.707091" lon="4.532944"><time>2026-05-08T07:58:49Z</time></trkpt>
</trkseg></trk>
<trk>
<name>brxrxp1</name>
<cmt>s</cmt>
<desc>Rixensart Chemin particulier n°p1 Rue de la Ferme</desc>
<link href="https://chemins.be/rixensart/chemin/p1"/><trkseg>
<trkpt lat="50.707091" lon="4.532944"><time>2026-05-08T07:58:49Z</time></trkpt>
<trkpt lat="50.705534" lon="4.530740"><time>2026-05-08T08:08:49Z</time></trkpt>
<trkpt lat="50.704963" lon="4.529489"><time>2026-05-08T08:18:49Z</time></trkpt>
<trkpt lat="50.704104" lon="4.528253"><time>2026-05-08T08:28:49Z</time></trkpt>
</trkseg>
</trk>
</gpx>